KJ6MC Weather Reports


Display with metric or nautical units.
time (UTC)temp
F
wind
direction
speed
MPH
gust
MPH
rain 1hr
in
rain 24hr
in
rain mn
in
humidity
%
barometer
mb
20200222231309 72 252 4.0 10.0 0.00 0.00 0.00 39 1013.3
20200222231204 72 191 4.0 14.0 0.00 0.00 0.00 40 1013.3
20200222231103 72 218 5.0 14.0 0.00 0.00 0.00 40 1013.3
20200222231043 72 214 5.0 14.0 0.00 0.00 0.00 40 1013.3
20200222230957 72 226 4.0 14.0 0.00 0.00 0.00 39 1013.3
20200222230857 72 238 4.0 14.0 0.00 0.00 0.00 39 1013.2
20200222230751 72 221 3.0 14.0 0.00 0.00 0.00 40 1013.2
20200222230651 72 226 3.0 14.0 0.00 0.00 0.00 40 1013.2
20200222230540 72 257 3.0 14.0 0.00 0.00 0.00 40 1013.2
20200222230445 72 218 3.0 14.0 0.00 0.00 0.00 39 1013.2
20200222230340 72 228 2.0 14.0 0.00 0.00 0.00 39 1013.2
20200222230240 73 240 2.0 14.0 0.00 0.00 0.00 39 1013.2
20200222230134 73 198 1.0 9.0 0.00 0.00 0.00 39 1013.1
20200222230039 73 203 1.0 9.0 0.00 0.00 0.00 39 1013.1
20200222230033 73 203 1.0 6.0 0.00 0.00 0.00 39 1013.1
20200222225928 73 283 1.0 6.0 0.00 0.00 0.00 39 1013.2
20200222225826 73 221 2.0 9.0 0.00 0.00 0.00 39 1013.1
20200222225721 73 243 2.0 11.0 0.00 0.00 0.00 38 1013.1
20200222225621 72 148 3.0 11.0 0.00 0.00 0.00 38 1013.2
20200222225539 72 302 3.0 11.0 0.00 0.00 0.00 38 1013.1
20200222225516 72 302 3.0 12.0 0.00 0.00 0.00 38 1013.1
20200222225415 72 192 3.0 12.0 0.00 0.00 0.00 37 1013.2
20200222225310 72 239 3.0 12.0 0.00 0.00 0.00 37 1013.2
20200222225209 72 223 4.0 12.0 0.00 0.00 0.00 37 1013.2
20200222225103 72 225 4.0 12.0 0.00 0.00 0.00 38 1013.2
20200222225033 72 252 5.0 12.0 0.00 0.00 0.00 37 1013.2
20200222225003 72 236 5.0 12.0 0.00 0.00 0.00 37 1013.2
20200222224858 72 200 4.0 12.0 0.00 0.00 0.00 36 1013.2
20200222224757 72 225 4.0 12.0 0.00 0.00 0.00 37 1013.2
20200222224651 72 217 4.0 12.0 0.00 0.00 0.00 36 1013.3
20200222224551 72 231 5.0 12.0 0.00 0.00 0.00 36 1013.2
20200222224533 72 195 5.0 12.0 0.00 0.00 0.00 36 1013.2
20200222224445 72 231 5.0 12.0 0.00 0.00 0.00 36 1013.2
20200222224345 72 226 4.0 12.0 0.00 0.00 0.00 35 1013.2
20200222224240 72 264 4.0 12.0 0.00 0.00 0.00 35 1013.3
20200222224139 72 228 3.0 12.0 0.00 0.00 0.00 35 1013.3
20200222224035 72 242 3.0 12.0 0.00 0.00 0.00 35 1013.3
20200222223933 73 219 3.0 12.0 0.00 0.00 0.00 36 1013.3
20200222223828 72 219 3.0 12.0 0.00 0.00 0.00 35 1013.3
20200222223727 73 297 4.0 12.0 0.00 0.00 0.00 35 1013.3
20200222223621 73 266 3.0 12.0 0.00 0.00 0.00 35 1013.3
20200222223533 73 248 3.0 12.0 0.00 0.00 0.00 35 1013.3
20200222223521 73 165 3.0 10.0 0.00 0.00 0.00 36 1013.3
20200222223416 73 193 3.0 11.0 0.00 0.00 0.00 37 1013.3
20200222223315 73 276 4.0 11.0 0.00 0.00 0.00 36 1013.3
20200222223209 73 218 4.0 11.0 0.00 0.00 0.00 36 1013.3
20200222223109 73 289 3.0 11.0 0.00 0.00 0.00 36 1013.3
20200222223034 73 212 3.0 11.0 0.00 0.00 0.00 36 1013.3
20200222223004 73 180 3.0 11.0 0.00 0.00 0.00 36 1013.3
20200222222903 73 252 3.0 11.0 0.00 0.00 0.00 36 1013.3
20200222222757 73 195 2.0 11.0 0.00 0.00 0.00 36 1013.3
20200222222657 73 278 2.0 11.0 0.00 0.00 0.00 36 1013.4
20200222222553 73 239 2.0 11.0 0.00 0.00 0.00 36 1013.4
20200222222535 73 224 2.0 11.0 0.00 0.00 0.00 36 1013.4
20200222222452 73 269 2.0 11.0 0.00 0.00 0.00 36 1013.4
20200222222346 73 236 1.0 7.0 0.00 0.00 0.00 36 1013.4
20200222222245 73 309 1.0 5.0 0.00 0.00 0.00 37 1013.4
20200222222139 73 293 1.0 4.0 0.00 0.00 0.00 36 1013.4
20200222222039 73 319 1.0 4.0 0.00 0.00 0.00 35 1013.4
20200222222028 73 294 1.0 4.0 0.00 0.00 0.00 35 1013.4
20200222221934 73 351 1.0 4.0 0.00 0.00 0.00 35 1013.4
20200222221833 73 266 1.0 4.0 0.00 0.00 0.00 35 1013.3
20200222221727 73 136 1.0 6.0 0.00 0.00 0.00 34 1013.4
20200222221628 73 282 1.0 6.0 0.00 0.00 0.00 34 1013.3
20200222221527 73 321 1.0 6.0 0.00 0.00 0.00 35 1013.4
20200222221522 73 221 1.0 6.0 0.00 0.00 0.00 35 1013.4
20200222221421 73 339 1.0 6.0 0.00 0.00 0.00 34 1013.4
20200222221315 73 309 1.0 6.0 0.00 0.00 0.00 34 1013.4
20200222221215 73 312 1.0 6.0 0.00 0.00 0.00 35 1013.4
20200222221110 73 248 1.0 6.0 0.00 0.00 0.00 35 1013.4
20200222221027 73 255 2.0 6.0 0.00 0.00 0.00 35 1013.4
20200222221009 73 210 2.0 6.0 0.00 0.00 0.00 35 1013.4
20200222220904 73 256 2.0 6.0 0.00 0.00 0.00 33 1013.4
20200222220803 73 338 2.0 7.0 0.00 0.00 0.00 34 1013.5
20200222220658 73 330 2.0 7.0 0.00 0.00 0.00 35 1013.5
20200222220557 73 308 2.0 7.0 0.00 0.00 0.00 35 1013.5
20200222220528 73 307 2.0 7.0 0.00 0.00 0.00 35 1013.5
20200222220452 73 316 2.0 7.0 0.00 0.00 0.00 35 1013.5
20200222220351 73 281 2.0 7.0 0.00 0.00 0.00 35 1013.5
20200222220245 73 226 2.0 7.0 0.00 0.00 0.00 34 1013.5
20200222220145 72 102 2.0 7.0 0.00 0.00 0.00 34 1013.5
20200222220040 72 278 2.0 7.0 0.00 0.00 0.00 34 1013.5
20200222220030 72 278 2.0 7.0 0.00 0.00 0.00 33 1013.5
20200222215939 72 216 2.0 7.0 0.00 0.00 0.00 33 1013.6
20200222215833 72 219 2.0 7.0 0.00 0.00 0.00 34 1013.5
20200222215733 72 238 2.0 7.0 0.00 0.00 0.00 34 1013.5
20200222215628 72 217 1.0 7.0 0.00 0.00 0.00 34 1013.6
20200222215529 72 162 2.0 8.0 0.00 0.00 0.00 34 1013.6
20200222215423 72 260 2.0 8.0 0.00 0.00 0.00 34 1013.6
20200222215320 72 242 2.0 8.0 0.00 0.00 0.00 34 1013.6
20200222215216 72 183 2.0 8.0 0.00 0.00 0.00 34 1013.6
20200222215115 71 250 2.0 8.0 0.00 0.00 0.00 35 1013.7
20200222215021 71 167 2.0 8.0 0.00 0.00 0.00 34 1013.7
20200222215011 71 263 2.0 8.0 0.00 0.00 0.00 34 1013.7
20200222214909 71 257 2.0 8.0 0.00 0.00 0.00 33 1013.7
20200222214803 71 298 2.0 8.0 0.00 0.00 0.00 33 1013.6
20200222214702 71 301 2.0 8.0 0.00 0.00 0.00 33 1013.6
20200222214558 71 253 2.0 8.0 0.00 0.00 0.00 33 1013.7
20200222214522 71 231 2.0 8.0 0.00 0.00 0.00 33 1013.7
20200222214457 71 314 2.0 8.0 0.00 0.00 0.00 34 1013.7
20200222214351 71 290 2.0 8.0 0.00 0.00 0.00 33 1013.7
20200222214250 71 312 2.0 8.0 0.00 0.00 0.00 34 1013.7
20200222214146 71 270 2.0 8.0 0.00 0.00 0.00 34 1013.7
20200222214045 71 200 2.0 8.0 0.00 0.00 0.00 35 1013.7
20200222214024 71 297 2.0 8.0 0.00 0.00 0.00 35 1013.7
20200222213940 71 276 2.0 8.0 0.00 0.00 0.00 34 1013.7
20200222213839 71 314 2.0 8.0 0.00 0.00 0.00 33 1013.7
20200222213733 71 200 1.0 7.0 0.00 0.00 0.00 33 1013.7
20200222213633 71 221 1.0 7.0 0.00 0.00 0.00 35 1013.7
20200222213529 71 257 1.0 5.0 0.00 0.00 0.00 34 1013.7
20200222213522 71 226 1.0 5.0 0.00 0.00 0.00 34 1013.7
20200222213426 71 245 1.0 6.0 0.00 0.00 0.00 34 1013.8
20200222213321 70 175 1.0 6.0 0.00 0.00 0.00 34 1013.8
20200222213222 70 314 1.0 6.0 0.00 0.00 0.00 34 1013.8
20200222213116 70 314 1.0 6.0 0.00 0.00 0.00 34 1013.8
20200222213022 70 315 1.0 6.0 0.00 0.00 0.00 35 1013.8
20200222213015 70 316 1.0 6.0 0.00 0.00 0.00 35 1013.8
20200222212909 70 323 1.0 6.0 0.00 0.00 0.00 35 1013.8
20200222212809 70 293 1.0 6.0 0.00 0.00 0.00 34 1013.8
20200222212704 70 293 2.0 6.0 0.00 0.00 0.00 34 1013.8
20200222212603 70 293 1.0 6.0 0.00 0.00 0.00 34 1013.8
20200222212521 70 13 1.0 6.0 0.00 0.00 0.00 34 1013.8
20200222212457 70 301 1.0 6.0 0.00 0.00 0.00 34 1013.9
20200222212356 70 326 1.0 6.0 0.00 0.00 0.00 34 1013.9
20200222212251 71 308 1.0 6.0 0.00 0.00 0.00 35 1013.8
20200222212150 71 245 1.0 6.0 0.00 0.00 0.00 34 1013.9
20200222212016 70 119 1.0 6.0 0.00 0.00 0.00 34 1013.9
20200222211945 70 338 1.0 6.0 0.00 0.00 0.00 34 1013.9
20200222211839 70 245 1.0 6.0 0.00 0.00 0.00 35 1013.8
20200222211740 70 201 1.0 5.0 0.00 0.00 0.00 35 1013.9
20200222211633 69 113 1.0 5.0 0.00 0.00 0.00 35 1013.9
20200222211533 69 86 1.0 5.0 0.00 0.00 0.00 36 1013.9
20200222211516 69 176 1.0 5.0 0.00 0.00 0.00 36 1013.9
20200222211428 69 311 1.0 5.0 0.00 0.00 0.00 35 1013.9
20200222211327 69 335 1.0 5.0 0.00 0.00 0.00 35 1013.9
20200222211222 69 288 1.0 5.0 0.00 0.00 0.00 34 1013.9
20200222211121 69 316 2.0 5.0 0.00 0.00 0.00 34 1013.9
20200222211017 69 296 2.0 7.0 0.00 0.00 0.00 35 1013.9
20200222210915 69 316 2.0 7.0 0.00 0.00 0.00 35 1014.0
20200222210809 69 316 2.0 7.0 0.00 0.00 0.00 34 1014.0
20200222210709 69 316 2.0 7.0 0.00 0.00 0.00 34 1014.0
20200222210604 69 316 2.0 7.0 0.00 0.00 0.00 33 1014.0
20200222210516 69 326 2.0 8.0 0.00 0.00 0.00 33 1014.0
20200222210503 69 311 2.0 8.0 0.00 0.00 0.00 33 1014.0
20200222210357 69 215 2.0 8.0 0.00 0.00 0.00 33 1014.1
20200222210257 69 300 2.0 8.0 0.00 0.00 0.00 35 1014.0
20200222210151 69 333 2.0 8.0 0.00 0.00 0.00 34 1014.0
20200222210050 69 271 2.0 8.0 0.00 0.00 0.00 35 1014.1
20200222210016 69 136 2.0 8.0 0.00 0.00 0.00 35 1014.1
20200222205947 68 277 2.0 8.0 0.00 0.00 0.00 35 1014.1
20200222205846 68 212 2.0 8.0 0.00 0.00 0.00 35 1014.1
20200222205740 68 274 2.0 8.0 0.00 0.00 0.00 33 1014.1
20200222205640 68 300 2.0 8.0 0.00 0.00 0.00 33 1014.1
20200222205534 69 323 1.0 7.0 0.00 0.00 0.00 33 1014.1
20200222205513 69 333 1.0 7.0 0.00 0.00 0.00 33 1014.1
20200222205433 69 309 1.0 7.0 0.00 0.00 0.00 33 1014.1
20200222205328 69 300 1.0 7.0 0.00 0.00 0.00 33 1014.2
20200222205228 69 264 1.0 6.0 0.00 0.00 0.00 34 1014.2
20200222205123 69 262 1.0 6.0 0.00 0.00 0.00 33 1014.2
20200222205021 69 287 1.0 6.0 0.00 0.00 0.00 34 1014.2
20200222205008 69 318 1.0 6.0 0.00 0.00 0.00 34 1014.2
20200222204916 69 275 1.0 5.0 0.00 0.00 0.00 34 1014.3
20200222204815 69 276 2.0 6.0 0.00 0.00 0.00 33 1014.3
20200222204710 69 278 2.0 6.0 0.00 0.00 0.00 34 1014.3
20200222204610 69 297 2.0 6.0 0.00 0.00 0.00 33 1014.3
20200222204510 69 328 2.0 6.0 0.00 0.00 0.00 33 1014.3
20200222204504 69 294 2.0 6.0 0.00 0.00 0.00 33 1014.3
20200222204403 69 284 2.0 6.0 0.00 0.00 0.00 33 1014.3
20200222204258 69 326 2.0 9.0 0.00 0.00 0.00 33 1014.4
20200222204157 69 245 2.0 9.0 0.00 0.00 0.00 33 1014.4
20200222204052 69 305 2.0 9.0 0.00 0.00 0.00 33 1014.4
20200222204008 69 312 2.0 9.0 0.00 0.00 0.00 32 1014.4
20200222203951 69 312 2.0 9.0 0.00 0.00 0.00 32 1014.5
20200222203846 69 325 2.0 9.0 0.00 0.00 0.00 32 1014.5
20200222203746 69 122 2.0 9.0 0.00 0.00 0.00 33 1014.5
20200222203641 69 300 2.0 9.0 0.00 0.00 0.00 32 1014.5
20200222203540 69 217 2.0 9.0 0.00 0.00 0.00 32 1014.5
20200222203508 69 233 2.0 9.0 0.00 0.00 0.00 32 1014.5
20200222203434 69 224 2.0 9.0 0.00 0.00 0.00 31 1014.5
20200222203334 69 307 2.0 9.0 0.00 0.00 0.00 31 1014.5
20200222203228 69 326 2.0 6.0 0.00 0.00 0.00 33 1014.5
20200222203127 69 194 2.0 6.0 0.00 0.00 0.00 33 1014.6
20200222203022 69 307 2.0 6.0 0.00 0.00 0.00 33 1014.6
20200222203009 69 328 2.0 6.0 0.00 0.00 0.00 33 1014.6
20200222202921 69 311 2.0 6.0 0.00 0.00 0.00 33 1014.6
20200222202816 69 300 2.0 6.0 0.00 0.00 0.00 34 1014.6
20200222202715 69 228 2.0 6.0 0.00 0.00 0.00 34 1014.6
20200222202611 69 296 1.0 6.0 0.00 0.00 0.00 34 1014.6
20200222202511 69 311 1.0 6.0 0.00 0.00 0.00 34 1014.7
20200222202405 69 105 1.0 6.0 0.00 0.00 0.00 34 1014.6
20200222202303 69 301 1.0 5.0 0.00 0.00 0.00 35 1014.7
20200222202159 69 121 1.0 4.0 0.00 0.00 0.00 34 1014.7
20200222202057 69 314 1.0 4.0 0.00 0.00 0.00 34 1014.8
20200222201952 69 259 1.0 4.0 0.00 0.00 0.00 34 1014.7
20200222201851 69 276 1.0 3.0 0.00 0.00 0.00 34 1014.7
20200222201746 69 319 1.0 3.0 0.00 0.00 0.00 34 1014.8
20200222201646 69 263 1.0 7.0 0.00 0.00 0.00 34 1014.7
20200222201540 69 312 1.0 8.0 0.00 0.00 0.00 34 1014.8
20200222201501 69 107 1.0 8.0 0.00 0.00 0.00 35 1014.8
20200222201440 69 250 1.0 8.0 0.00 0.00 0.00 35 1014.8
20200222201334 69 340 1.0 8.0 0.00 0.00 0.00 34 1014.8
20200222201234 69 245 2.0 8.0 0.00 0.00 0.00 35 1014.8
20200222201128 69 228 2.0 10.0 0.00 0.00 0.00 35 1014.8
20200222201028 69 270 2.0 10.0 0.00 0.00 0.00 34 1014.8
20200222201002 69 271 2.0 10.0 0.00 0.00 0.00 35 1014.9
20200222200922 68 224 2.0 10.0 0.00 0.00 0.00 36 1014.9
20200222200822 68 146 2.0 10.0 0.00 0.00 0.00 35 1014.8
20200222200716 68 337 2.0 10.0 0.00 0.00 0.00 35 1014.9
20200222200617 68 232 2.0 10.0 0.00 0.00 0.00 36 1014.9
20200222200511 68 314 2.0 10.0 0.00 0.00 0.00 36 1015.0
20200222200501 68 252 2.0 10.0 0.00 0.00 0.00 36 1014.9
20200222200409 68 274 2.0 10.0 0.00 0.00 0.00 36 1015.0
20200222200304 68 248 2.0 10.0 0.00 0.00 0.00 35 1015.0
20200222200205 68 280 2.0 6.0 0.00 0.00 0.00 35 1015.0
20200222200058 68 267 1.0 5.0 0.00 0.00 0.00 36 1015.0
20200222200004 68 280 1.0 5.0 0.00 0.00 0.00 36 1015.0
20200222195958 68 280 2.0 5.0 0.00 0.00 0.00 36 1015.0
20200222195852 68 298 2.0 8.0 0.00 0.00 0.00 36 1015.1
20200222195752 68 249 2.0 8.0 0.00 0.00 0.00 36 1015.1
20200222195646 68 269 2.0 8.0 0.00 0.00 0.00 36 1015.1
20200222195545 68 204 2.0 8.0 0.00 0.00 0.00 37 1015.1
20200222195501 68 349 2.0 8.0 0.00 0.00 0.00 37 1015.1
20200222195440 68 309 2.0 8.0 0.00 0.00 0.00 38 1015.1
20200222195340 68 222 2.0 8.0 0.00 0.00 0.00 37 1015.1
20200222195235 67 204 2.0 8.0 0.00 0.00 0.00 37 1015.2
20200222195133 67 349 2.0 8.0 0.00 0.00 0.00 38 1015.2
20200222195028 67 354 2.0 8.0 0.00 0.00 0.00 37 1015.2
20200222195000 67 250 1.0 8.0 0.00 0.00 0.00 37 1015.3
20200222194928 67 248 1.0 8.0 0.00 0.00 0.00 37 1015.3
20200222194822 67 255 1.0 7.0 0.00 0.00 0.00 37 1015.3
20200222194722 67 260 1.0 7.0 0.00 0.00 0.00 37 1015.3
20200222194616 67 257 1.0 7.0 0.00 0.00 0.00 37 1015.4
20200222194515 67 302 1.0 7.0 0.00 0.00 0.00 37 1015.3
20200222194500 67 304 1.0 7.0 0.00 0.00 0.00 37 1015.3
20200222194410 67 304 1.0 7.0 0.00 0.00 0.00 36 1015.3
20200222194310 67 300 1.0 7.0 0.00 0.00 0.00 36 1015.4
20200222194205 67 300 1.0 3.0 0.00 0.00 0.00 36 1015.4
20200222194105 67 256 1.0 3.0 0.00 0.00 0.00 37 1015.4
20200222193958 67 255 1.0 3.0 0.00 0.00 0.00 37 1015.4
20200222193857 67 278 1.0 4.0 0.00 0.00 0.00 36 1015.3
20200222193752 67 242 1.0 4.0 0.00 0.00 0.00 36 1015.4
20200222193651 67 253 1.0 4.0 0.00 0.00 0.00 36 1015.4
20200222193546 67 262 1.0 4.0 0.00 0.00 0.00 35 1015.4
20200222193458 67 262 1.0 4.0 0.00 0.00 0.00 36 1015.4
20200222193445 67 259 1.0 4.0 0.00 0.00 0.00 36 1015.4
20200222193340 67 233 1.0 11.0 0.00 0.00 0.00 35 1015.4
20200222193240 67 264 1.0 11.0 0.00 0.00 0.00 35 1015.3
20200222193134 67 245 1.0 11.0 0.00 0.00 0.00 35 1015.4
20200222193033 67 302 1.0 11.0 0.00 0.00 0.00 35 1015.4
20200222192957 67 347 2.0 11.0 0.00 0.00 0.00 36 1015.4
20200222192929 67 285 2.0 11.0 0.00 0.00 0.00 36 1015.4
20200222192827 67 323 2.0 11.0 0.00 0.00 0.00 34 1015.4
20200222192722 67 231 3.0 11.0 0.00 0.00 0.00 35 1015.4
20200222192621 67 226 3.0 11.0 0.00 0.00 0.00 36 1015.4
20200222192516 67 304 3.0 11.0 0.00 0.00 0.00 36 1015.4
20200222192455 67 304 3.0 11.0 0.00 0.00 0.00 35 1015.5
20200222192416 67 226 3.0 11.0 0.00 0.00 0.00 35 1015.5
20200222192310 67 293 3.0 10.0 0.00 0.00 0.00 38 1015.4
20200222192210 67 253 3.0 10.0 0.00 0.00 0.00 38 1015.4
20200222192104 67 146 3.0 10.0 0.00 0.00 0.00 37 1015.4
20200222192003 67 229 2.0 10.0 0.00 0.00 0.00 36 1015.4
20200222191950 67 231 2.0 10.0 0.00 0.00 0.00 36 1015.4
20200222191858 67 222 2.0 9.0 0.00 0.00 0.00 37 1015.4
20200222191758 67 151 1.0 6.0 0.00 0.00 0.00 37 1015.4
20200222191653 67 210 1.0 6.0 0.00 0.00 0.00 38 1015.4
20200222191551 67 186 2.0 10.0 0.00 0.00 0.00 39 1015.4
20200222191452 66 250 2.0 11.0 0.00 0.00 0.00 38 1015.4
20200222191446 66 252 2.0 11.0 0.00 0.00 0.00 39 1015.4
20200222191347 66 139 2.0 11.0 0.00 0.00 0.00 39 1015.4
20200222191240 66 276 2.0 11.0 0.00 0.00 0.00 39 1015.4
20200222191139 66 276 2.0 11.0 0.00 0.00 0.00 40 1015.4
20200222191034 66 240 2.0 11.0 0.00 0.00 0.00 39 1015.4
20200222190949 66 214 2.0 11.0 0.00 0.00 0.00 39 1015.4
20200222190934 66 203 2.0 11.0 0.00 0.00 0.00 39 1015.4
20200222190828 65 239 2.0 11.0 0.00 0.00 0.00 40 1015.4
20200222190728 65 236 3.0 11.0 0.00 0.00 0.00 40 1015.3
20200222190622 65 226 2.0 11.0 0.00 0.00 0.00 39 1015.4
20200222190521 65 198 2.0 7.0 0.00 0.00 0.00 39 1015.4
20200222190450 65 174 2.0 7.0 0.00 0.00 0.00 39 1015.4
20200222190416 65 226 2.0 7.0 0.00 0.00 0.00 39 1015.4
20200222190315 65 247 2.0 7.0 0.00 0.00 0.00 38 1015.4
20200222190210 65 252 2.0 11.0 0.00 0.00 0.00 39 1015.5
20200222190109 65 257 3.0 11.0 0.00 0.00 0.00 40 1015.4
20200222190005 65 285 3.0 11.0 0.00 0.00 0.00 40 1015.5
20200222185950 65 291 3.0 11.0 0.00 0.00 0.00 40 1015.5
20200222185903 65 188 3.0 11.0 0.00 0.00 0.00 40 1015.4
20200222185758 65 208 3.0 11.0 0.00 0.00 0.00 41 1015.5
20200222185657 64 287 3.0 11.0 0.00 0.00 0.00 41 1015.5
20200222185552 64 229 4.0 11.0 0.00 0.00 0.00 41 1015.5
20200222185453 64 255 4.0 11.0 0.00 0.00 0.00 41 1015.5
20200222185348 64 293 4.0 11.0 0.00 0.00 0.00 41 1015.5
20200222185247 64 190 4.0 11.0 0.00 0.00 0.00 40 1015.6
20200222185140 64 231 4.0 10.0 0.00 0.00 0.00 40 1015.5
20200222185039 64 222 4.0 10.0 0.00 0.00 0.00 41 1015.6
20200222184948 64 232 4.0 10.0 0.00 0.00 0.00 42 1015.5
20200222184934 64 235 4.0 10.0 0.00 0.00 0.00 42 1015.5
20200222184833 63 219 5.0 10.0 0.00 0.00 0.00 42 1015.6
20200222184728 63 224 5.0 10.0 0.00 0.00 0.00 41 1015.6
20200222184627 63 271 5.0 10.0 0.00 0.00 0.00 41 1015.6
20200222184522 63 221 5.0 10.0 0.00 0.00 0.00 42 1015.6
20200222184446 63 252 5.0 10.0 0.00 0.00 0.00 41 1015.5
20200222184422 63 242 5.0 10.0 0.00 0.00 0.00 41 1015.5
20200222184316 63 199 5.0 10.0 0.00 0.00 0.00 41 1015.6
20200222184215 63 215 5.0 10.0 0.00 0.00 0.00 42 1015.6
20200222184110 63 206 5.0 10.0 0.00 0.00 0.00 41 1015.6
20200222184010 63 174 4.0 10.0 0.00 0.00 0.00 41 1015.6
20200222183945 63 184 4.0 10.0 0.00 0.00 0.00 41 1015.6
20200222183904 63 235 4.0 10.0 0.00 0.00 0.00 41 1015.7
20200222183804 63 242 4.0 10.0 0.00 0.00 0.00 42 1015.6
20200222183658 63 238 4.0 10.0 0.00 0.00 0.00 42 1015.6
20200222183559 63 212 4.0 10.0 0.00 0.00 0.00 42 1015.6
20200222183456 63 179 4.0 8.0 0.00 0.00 0.00 42 1015.6
20200222183446 63 221 4.0 8.0 0.00 0.00 0.00 42 1015.6
20200222183352 63 271 4.0 8.0 0.00 0.00 0.00 42 1015.7
20200222183247 63 235 4.0 8.0 0.00 0.00 0.00 42 1015.7
20200222183153 63 205 4.0 8.0 0.00 0.00 0.00 43 1015.6
20200222183041 62 253 4.0 8.0 0.00 0.00 0.00 44 1015.6
20200222182946 62 255 5.0 8.0 0.00 0.00 0.00 43 1015.6
20200222182940 62 228 5.0 8.0 0.00 0.00 0.00 43 1015.6
20200222182834 62 255 5.0 8.0 0.00 0.00 0.00 43 1015.6
20200222182734 62 165 4.0 8.0 0.00 0.00 0.00 43 1015.6
20200222182628 62 212 4.0 8.0 0.00 0.00 0.00 44 1015.6
20200222182527 62 242 4.0 8.0 0.00 0.00 0.00 44 1015.6
20200222182444 62 214 5.0 8.0 0.00 0.00 0.00 44 1015.5
20200222182422 62 131 5.0 8.0 0.00 0.00 0.00 44 1015.5
20200222182322 62 174 4.0 8.0 0.00 0.00 0.00 44 1015.6
20200222182216 62 133 4.0 8.0 0.00 0.00 0.00 43 1015.5
20200222182115 62 183 4.0 8.0 0.00 0.00 0.00 44 1015.6
20200222182010 62 163 4.0 8.0 0.00 0.00 0.00 44 1015.6
20200222181938 62 193 4.0 8.0 0.00 0.00 0.00 44 1015.6
20200222181909 61 203 4.0 8.0 0.00 0.00 0.00 44 1015.6
20200222181804 61 231 4.0 10.0 0.00 0.00 0.00 44 1015.6
20200222181704 61 203 4.0 11.0 0.00 0.00 0.00 44 1015.6
20200222181558 61 147 4.0 11.0 0.00 0.00 0.00 44 1015.6
20200222181458 61 191 4.0 11.0 0.00 0.00 0.00 45 1015.6
20200222181438 61 214 4.0 11.0 0.00 0.00 0.00 45 1015.6
20200222181352 61 187 5.0 11.0 0.00 0.00 0.00 44 1015.6
20200222181252 61 236 5.0 11.0 0.00 0.00 0.00 45 1015.5
20200222181147 61 190 5.0 11.0 0.00 0.00 0.00 44 1015.6
20200222181046 61 236 5.0 11.0 0.00 0.00 0.00 43 1015.6
20200222180941 61 203 4.0 11.0 0.00 0.00 0.00 43 1015.6
20200222180840 61 218 4.0 11.0 0.00 0.00 0.00 43 1015.6
20200222180734 61 232 4.0 11.0 0.00 0.00 0.00 43 1015.6
20200222180634 61 179 4.0 9.0 0.00 0.00 0.00 43 1015.6
20200222180528 61 194 3.0 9.0 0.00 0.00 0.00 42 1015.7
20200222180438 61 222 3.0 9.0 0.00 0.00 0.00 41 1015.7
20200222180428 61 199 3.0 9.0 0.00 0.00 0.00 41 1015.7
20200222180322 61 215 3.0 9.0 0.00 0.00 0.00 41 1015.7
20200222180222 61 242 2.0 8.0 0.00 0.00 0.00 41 1015.7
20200222180116 61 242 2.0 8.0 0.00 0.00 0.00 42 1015.8
20200222180015 61 230 3.0 8.0 0.00 0.00 0.00 42 1015.8
20200222175938 61 239 3.0 8.0 0.00 0.00 0.00 42 1015.7
20200222175910 61 235 3.0 8.0 0.00 0.00 0.00 42 1015.7
20200222175810 61 201 2.0 8.0 0.00 0.00 0.00 42 1015.7
20200222175704 61 236 2.0 8.0 0.00 0.00 0.00 44 1015.7
20200222175604 61 233 2.0 8.0 0.00 0.00 0.00 44 1015.7
20200222175458 61 255 2.0 8.0 0.00 0.00 0.00 45 1015.7
20200222175438 61 238 2.0 8.0 0.00 0.00 0.00 45 1015.7
20200222175359 61 236 3.0 8.0 0.00 0.00 0.00 45 1015.7
20200222175252 61 214 3.0 9.0 0.00 0.00 0.00 44 1015.7
20200222175152 61 219 3.0 9.0 0.00 0.00 0.00 45 1015.7
20200222175046 60 238 3.0 9.0 0.00 0.00 0.00 47 1015.7
20200222174947 60 242 3.0 9.0 0.00 0.00 0.00 48 1015.7
20200222174931 60 234 3.0 9.0 0.00 0.00 0.00 48 1015.7
20200222174840 60 187 4.0 9.0 0.00 0.00 0.00 48 1015.8
20200222174740 60 125 4.0 9.0 0.00 0.00 0.00 48 1015.8
20200222174634 60 224 4.0 9.0 0.00 0.00 0.00 48 1015.9
20200222174533 59 228 4.0 9.0 0.00 0.00 0.00 47 1015.9
20200222174434 59 260 4.0 9.0 0.00 0.00 0.00 47 1015.8
20200222174428 59 232 4.0 9.0 0.00 0.00 0.00 47 1015.8
20200222174327 60 235 4.0 9.0 0.00 0.00 0.00 47 1015.9
20200222174222 60 203 3.0 8.0 0.00 0.00 0.00 48 1015.9
20200222174122 60 221 3.0 8.0 0.00 0.00 0.00 48 1015.9
20200222174016 59 207 3.0 8.0 0.00 0.00 0.00 49 1015.9
20200222173932 59 183 3.0 8.0 0.00 0.00 0.00 49 1015.8
20200222173916 59 222 3.0 8.0 0.00 0.00 0.00 49 1015.8
20200222173810 59 239 3.0 8.0 0.00 0.00 0.00 50 1015.9
20200222173710 59 222 4.0 8.0 0.00 0.00 0.00 50 1015.9
20200222173604 59 229 4.0 8.0 0.00 0.00 0.00 50 1015.8
20200222173503 59 224 4.0 8.0 0.00 0.00 0.00 50 1015.8
20200222173431 59 207 4.0 8.0 0.00 0.00 0.00 51 1015.8
20200222173359 58 214 4.0 8.0 0.00 0.00 0.00 51 1015.8
20200222173258 58 214 4.0 8.0 0.00 0.00 0.00 50 1015.7
20200222173152 58 225 4.0 8.0 0.00 0.00 0.00 49 1015.7
20200222173052 58 225 4.0 8.0 0.00 0.00 0.00 49 1015.7
20200222172947 58 207 4.0 8.0 0.00 0.00 0.00 51 1015.8
20200222172932 58 193 4.0 8.0 0.00 0.00 0.00 51 1015.8
20200222172847 58 205 4.0 7.0 0.00 0.00 0.00 51 1015.7
20200222172740 58 204 3.0 7.0 0.00 0.00 0.00 50 1015.7
20200222172640 58 236 3.0 7.0 0.00 0.00 0.00 50 1015.7
20200222172534 58 236 3.0 7.0 0.00 0.00 0.00 51 1015.7
20200222172435 58 218 3.0 7.0 0.00 0.00 0.00 51 1015.6
20200222172328 58 238 3.0 7.0 0.00 0.00 0.00 51 1015.7
20200222172227 58 145 3.0 7.0 0.00 0.00 0.00 51 1015.6
20200222172122 58 120 3.0 7.0 0.00 0.00 0.00 52 1015.6
20200222172022 58 191 3.0 7.0 0.00 0.00 0.00 52 1015.6
20200222171925 58 255 3.0 7.0 0.00 0.00 0.00 51 1015.6
20200222171917 58 223 3.0 7.0 0.00 0.00 0.00 51 1015.6
20200222171816 58 168 3.0 7.0 0.00 0.00 0.00 52 1015.6
20200222171710 58 210 3.0 7.0 0.00 0.00 0.00 52 1015.6
20200222171609 58 190 3.0 7.0 0.00 0.00 0.00 52 1015.6
20200222171505 58 186 3.0 7.0 0.00 0.00 0.00 51 1015.6
20200222171426 58 208 3.0 7.0 0.00 0.00 0.00 51 1015.6
20200222171403 58 170 3.0 6.0 0.00 0.00 0.00 52 1015.6
20200222171258 58 171 3.0 6.0 0.00 0.00 0.00 52 1015.6
20200222171157 58 223 3.0 6.0 0.00 0.00 0.00 52 1015.5
20200222171052 58 204 2.0 6.0 0.00 0.00 0.00 54 1015.6
20200222170952 57 167 2.0 5.0 0.00 0.00 0.00 54 1015.6
20200222170926 57 166 2.0 5.0 0.00 0.00 0.00 54 1015.6
20200222170846 57 190 2.0 5.0 0.00 0.00 0.00 54 1015.6
20200222170746 57 221 3.0 5.0 0.00 0.00 0.00 54 1015.6
20200222170640 57 170 3.0 6.0 0.00 0.00 0.00 53 1015.6
20200222170540 57 198 2.0 6.0 0.00 0.00 0.00 53 1015.6
20200222170440 57 217 2.0 6.0 0.00 0.00 0.00 53 1015.6
20200222170423 57 219 2.0 6.0 0.00 0.00 0.00 53 1015.6
20200222170340 57 198 2.0 6.0 0.00 0.00 0.00 54 1015.6
20200222170240 56 205 2.0 6.0 0.00 0.00 0.00 54 1015.6
20200222170140 56 219 2.0 6.0 0.00 0.00 0.00 54 1015.6
20200222170040 56 197 2.0 6.0 0.00 0.00 0.00 53 1015.6
20200222165938 56 229 2.0 6.0 0.00 0.00 0.00 54 1015.6
20200222165924 56 212 2.0 6.0 0.00 0.00 0.00 54 1015.6
20200222165839 56 162 2.0 6.0 0.00 0.00 0.00 54 1015.6
20200222165732 56 195 2.0 6.0 0.00 0.00 0.00 54 1015.6
20200222165632 56 208 2.0 4.0 0.00 0.00 0.00 55 1015.6
20200222165526 56 143 2.0 4.0 0.00 0.00 0.00 56 1015.6
20200222165427 56 162 2.0 4.0 0.00 0.00 0.00 56 1015.6
20200222165320 56 195 2.0 4.0 0.00 0.00 0.00 56 1015.6
20200222165220 56 203 2.0 4.0 0.00 0.00 0.00 56 1015.5
20200222165114 56 186 2.0 4.0 0.00 0.00 0.00 56 1015.5
20200222165014 56 207 2.0 4.0 0.00 0.00 0.00 56 1015.5
20200222164920 56 240 2.0 4.0 0.00 0.00 0.00 56 1015.5
20200222164908 56 214 2.0 4.0 0.00 0.00 0.00 56 1015.5
20200222164808 56 179 2.0 4.0 0.00 0.00 0.00 56 1015.5
20200222164703 56 141 2.0 4.0 0.00 0.00 0.00 58 1015.5
20200222164602 55 208 1.0 3.0 0.00 0.00 0.00 58 1015.5
20200222164456 55 214 1.0 3.0 0.00 0.00 0.00 60 1015.5
20200222164419 55 190 1.0 3.0 0.00 0.00 0.00 61 1015.5
20200222164356 55 215 1.0 3.0 0.00 0.00 0.00 61 1015.5
20200222164250 55 155 1.0 3.0 0.00 0.00 0.00 62 1015.5
20200222164150 54 158 1.0 4.0 0.00 0.00 0.00 63 1015.5
20200222164044 54 217 1.0 4.0 0.00 0.00 0.00 63 1015.5
20200222163944 54 155 1.0 4.0 0.00 0.00 0.00 64 1015.5
20200222163919 53 184 1.0 4.0 0.00 0.00 0.00 64 1015.5
20200222163838 53 195 1.0 4.0 0.00 0.00 0.00 64 1015.5
20200222163738 53 193 1.0 4.0 0.00 0.00 0.00 65 1015.4
20200222163632 53 214 1.0 5.0 0.00 0.00 0.00 66 1015.4
20200222163531 52 222 1.0 5.0 0.00 0.00 0.00 66 1015.4
20200222163429 52 215 1.0 5.0 0.00 0.00 0.00 67 1015.4
20200222163420 52 228 1.0 5.0 0.00 0.00 0.00 67 1015.4
20200222163327 52 205 1.0 5.0 0.00 0.00 0.00 67 1015.4
20200222163220 51 190 1.0 5.0 0.00 0.00 0.00 69 1015.4
20200222163119 51 198 1.0 5.0 0.00 0.00 0.00 70 1015.4
20200222163014 51 251 1.0 5.0 0.00 0.00 0.00 70 1015.4
20200222162914 51 250 1.0 5.0 0.00 0.00 0.00 70 1015.4
20200222162808 51 248 1.0 5.0 0.00 0.00 0.00 70 1015.4
20200222162708 51 225 0.0 5.0 0.00 0.00 0.00 71 1015.3
20200222162603 50 205 0.0 4.0 0.00 0.00 0.00 73 1015.3
20200222162502 50 148 0.0 4.0 0.00 0.00 0.00 74 1015.3
20200222162417 50 148 0.0 4.0 0.00 0.00 0.00 74 1015.3
20200222162356 49 148 0.0 4.0 0.00 0.00 0.00 75 1015.3
20200222162256 49 211 0.0 4.0 0.00 0.00 0.00 75 1015.3
20200222162150 49 212 0.0 4.0 0.00 0.00 0.00 75 1015.4
20200222162049 49 212 0.0 4.0 0.00 0.00 0.00 75 1015.3
20200222161944 49 207 0.0 4.0 0.00 0.00 0.00 75 1015.4
20200222161913 48 212 0.0 3.0 0.00 0.00 0.00 75 1015.4
20200222161844 48 217 0.0 1.0 0.00 0.00 0.00 75 1015.3
20200222161738 48 217 0.0 1.0 0.00 0.00 0.00 75 1015.2
20200222161637 48 217 0.0 1.0 0.00 0.00 0.00 75 1015.3
20200222161532 48 217 0.0 1.0 0.00 0.00 0.00 75 1015.3
20200222161414 48 217 0.0 1.0 0.00 0.00 0.00 75 1015.2
20200222161327 48 217 0.0 1.0 0.00 0.00 0.00 75 1015.1
20200222161225 48 139 0.0 1.0 0.00 0.00 0.00 75 1015.0
20200222161126 48 139 0.0 0.0 0.00 0.00 0.00 75 1015.1
20200222161024 48 139 0.0 0.0 0.00 0.00 0.00 74 1015.0
20200222160922 48 139 0.0 0.0 0.00 0.00 0.00 74 1015.0
20200222160911 48 140 0.0 0.0 0.00 0.00 0.00 74 1015.0
20200222160823 48 139 0.0 0.0 0.00 0.00 0.00 74 1015.0
20200222160722 48 139 0.0 0.0 0.00 0.00 0.00 74 1015.0
20200222160622 48 140 0.0 0.0 0.00 0.00 0.00 73 1015.0
20200222160522 48 139 0.0 0.0 0.00 0.00 0.00 73 1015.0
20200222160409 48 139 0.0 0.0 0.00 0.00 0.00 74 1015.0
20200222160315 48 139 0.0 1.0 0.00 0.00 0.00 74 1015.0
20200222160210 47 139 0.0 1.0 0.00 0.00 0.00 74 1015.0
20200222160109 47 139 0.0 1.0 0.00 0.00 0.00 75 1015.0
20200222160004 47 139 0.0 1.0 0.00 0.00 0.00 76 1015.0
20200222155909 47 139 0.0 1.0 0.00 0.00 0.00 76 1015.0
20200222155904 47 140 0.0 1.0 0.00 0.00 0.00 76 1015.1
20200222155758 47 139 0.0 1.0 0.00 0.00 0.00 77 1015.0
20200222155658 47 139 0.0 1.0 0.00 0.00 0.00 77 1015.0
20200222155552 46 139 0.0 1.0 0.00 0.00 0.00 78 1015.0
20200222155452 46 139 0.0 1.0 0.00 0.00 0.00 79 1015.0
20200222155408 46 139 0.0 1.0 0.00 0.00 0.00 79 1015.0
20200222155346 46 139 0.0 1.0 0.00 0.00 0.00 79 1015.0
20200222155246 46 140 0.0 0.0 0.00 0.00 0.00 79 1015.0
20200222155140 46 139 0.0 0.0 0.00 0.00 0.00 79 1015.0
20200222155040 46 139 0.0 0.0 0.00 0.00 0.00 79 1015.0
20200222154934 46 139 0.0 0.0 0.00 0.00 0.00 79 1015.0
20200222154903 46 139 0.0 0.0 0.00 0.00 0.00 79 1015.0
20200222154834 46 139 0.0 0.0 0.00 0.00 0.00 79 1015.0
20200222154728 46 139 0.0 0.0 0.00 0.00 0.00 79 1015.0
20200222154627 46 140 0.0 0.0 0.00 0.00 0.00 79 1015.0
20200222154522 46 139 0.0 0.0 0.00 0.00 0.00 79 1015.0
20200222154404 46 139 0.0 0.0 0.00 0.00 0.00 79 1014.9
20200222154317 46 139 0.0 0.0 0.00 0.00 0.00 79 1014.9
20200222154215 46 139 0.0 0.0 0.00 0.00 0.00 79 1014.9
20200222154110 46 140 0.0 0.0 0.00 0.00 0.00 79 1014.9
20200222154011 46 139 0.0 0.0 0.00 0.00 0.00 79 1014.8
20200222153909 46 139 0.0 0.0 0.00 0.00 0.00 79 1014.8
20200222153904 46 139 0.0 0.0 0.00 0.00 0.00 79 1014.8
20200222153804 46 139 0.0 0.0 0.00 0.00 0.00 79 1014.8
20200222153659 46 139 0.0 0.0 0.00 0.00 0.00 79 1014.8
20200222153557 46 140 0.0 0.0 0.00 0.00 0.00 79 1014.7
20200222153452 46 139 0.0 0.0 0.00 0.00 0.00 79 1014.7
20200222153403 46 139 0.0 0.0 0.00 0.00 0.00 78 1014.8
20200222153352 46 139 0.0 0.0 0.00 0.00 0.00 78 1014.8
20200222153247 46 139 0.0 0.0 0.00 0.00 0.00 77 1014.7
20200222153147 46 139 0.0 0.0 0.00 0.00 0.00 77 1014.8
20200222153041 46 140 0.0 0.0 0.00 0.00 0.00 77 1014.7
20200222152940 46 139 0.0 0.0 0.00 0.00 0.00 77 1014.7
20200222152902 46 139 0.0 0.0 0.00 0.00 0.00 77 1014.7
20200222152834 46 140 0.0 0.0 0.00 0.00 0.00 77 1014.7
20200222152734 46 139 0.0 0.0 0.00 0.00 0.00 77 1014.7
20200222152628 46 140 0.0 0.0 0.00 0.00 0.00 77 1014.7
20200222152528 46 139 0.0 0.0 0.00 0.00 0.00 77 1014.7
20200222152422 46 139 0.0 0.0 0.00 0.00 0.00 77 1014.6
20200222152402 46 139 0.0 0.0 0.00 0.00 0.00 77 1014.7
20200222152322 46 139 0.0 0.0 0.00 0.00 0.00 77 1014.7
20200222152216 46 139 0.0 0.0 0.00 0.00 0.00 76 1014.6
20200222152116 46 139 0.0 0.0 0.00 0.00 0.00 76 1014.6
20200222152010 46 139 0.0 0.0 0.00 0.00 0.00 76 1014.6
20200222151910 46 139 0.0 0.0 0.00 0.00 0.00 76 1014.6
20200222151855 46 139 0.0 0.0 0.00 0.00 0.00 76 1014.6
20200222151804 46 140 0.0 0.0 0.00 0.00 0.00 76 1014.5
20200222151704 46 139 0.0 0.0 0.00 0.00 0.00 75 1014.5
20200222151558 47 139 0.0 1.0 0.00 0.00 0.00 75 1014.5
20200222151458 47 139 0.0 1.0 0.00 0.00 0.00 75 1014.5
20200222151352 47 139 0.0 1.0 0.00 0.00 0.00 75 1014.5
20200222151252 47 139 0.0 1.0 0.00 0.00 0.00 75 1014.5
20200222151146 47 139 0.0 1.0 0.00 0.00 0.00 75 1014.5
20200222151046 47 139 0.0 1.0 0.00 0.00 0.00 75 1014.5
20200222150940 47 139 0.0 1.0 0.00 0.00 0.00 75 1014.5
20200222150840 47 139 0.0 1.0 0.00 0.00 0.00 75 1014.4
20200222150734 47 140 0.0 1.0 0.00 0.00 0.00 75 1014.4
20200222150634 47 139 0.0 1.0 0.00 0.00 0.00 75 1014.4
20200222150529 47 139 0.0 1.0 0.00 0.00 0.00 75 1014.4
20200222150428 47 139 0.0 1.0 0.00 0.00 0.00 75 1014.3
20200222150349 47 139 0.0 1.0 0.00 0.00 0.00 75 1014.4
20200222150322 47 140 0.0 1.0 0.00 0.00 0.00 75 1014.4
20200222150222 47 139 0.0 1.0 0.00 0.00 0.00 75 1014.3
20200222150116 47 139 0.0 1.0 0.00 0.00 0.00 75 1014.4
20200222150016 47 139 0.0 2.0 0.00 0.00 0.00 75 1014.4
20200222145910 47 139 0.0 2.0 0.00 0.00 0.00 75 1014.4
20200222145849 47 139 1.0 2.0 0.00 0.00 0.00 75 1014.4
20200222145810 47 139 1.0 2.0 0.00 0.00 0.00 75 1014.4
20200222145704 47 139 1.0 2.0 0.00 0.00 0.00 75 1014.3
20200222145604 47 139 1.0 2.0 0.00 0.00 0.00 75 1014.3
20200222145458 47 139 1.0 2.0 0.00 0.00 0.00 75 1014.4
20200222145344 47 139 1.0 2.0 0.00 0.00 0.00 75 1014.3
20200222145254 47 140 0.0 2.0 0.00 0.00 0.00 75 1014.3
20200222145152 47 132 0.0 2.0 0.00 0.00 0.00 76 1014.3
20200222145046 47 124 0.0 1.0 0.00 0.00 0.00 76 1014.3
20200222144945 47 123 0.0 1.0 0.00 0.00 0.00 76 1014.2
20200222144841 47 122 0.0 2.0 0.00 0.00 0.00 76 1014.2
20200222144740 47 122 0.0 2.0 0.00 0.00 0.00 76 1014.2
20200222144634 47 122 1.0 2.0 0.00 0.00 0.00 76 1014.2
20200222144535 47 123 1.0 2.0 0.00 0.00 0.00 76 1014.1
20200222144428 47 123 1.0 2.0 0.00 0.00 0.00 76 1014.1
20200222144343 47 122 1.0 2.0 0.00 0.00 0.00 76 1014.1
20200222144328 47 123 1.0 2.0 0.00 0.00 0.00 76 1014.1
20200222144222 47 122 1.0 2.0 0.00 0.00 0.00 75 1014.1
20200222144124 47 122 1.0 2.0 0.00 0.00 0.00 75 1014.0
20200222144016 47 123 0.0 2.0 0.00 0.00 0.00 75 1014.0
20200222143916 47 123 0.0 2.0 0.00 0.00 0.00 75 1014.0
20200222143843 47 123 0.0 2.0 0.00 0.00 0.00 75 1014.0
20200222143810 47 121 0.0 1.0 0.00 0.00 0.00 75 1014.0
20200222143710 47 89 0.0 1.0 0.00 0.00 0.00 75 1014.1
20200222143604 47 89 0.0 1.0 0.00 0.00 0.00 75 1014.1
20200222143503 47 89 0.0 1.0 0.00 0.00 0.00 75 1014.1
20200222143344 47 89 0.0 1.0 0.00 0.00 0.00 75 1014.1
20200222143258 47 89 0.0 1.0 0.00 0.00 0.00 75 1014.1
20200222143152 47 89 0.0 2.0 0.00 0.00 0.00 75 1014.0
20200222143052 47 89 0.0 2.0 0.00 0.00 0.00 75 1014.1
20200222142946 47 89 0.0 2.0 0.00 0.00 0.00 75 1014.0
20200222142847 47 89 0.0 2.0 0.00 0.00 0.00 75 1014.0
20200222142740 47 89 0.0 2.0 0.00 0.00 0.00 75 1014.0
20200222142639 47 89 0.0 2.0 0.00 0.00 0.00 75 1014.0
20200222142534 47 89 0.0 2.0 0.00 0.00 0.00 75 1014.0
20200222142434 47 89 0.0 2.0 0.00 0.00 0.00 75 1014.0
20200222142328 47 89 0.0 2.0 0.00 0.00 0.00 76 1014.0
20200222142228 47 89 0.0 2.0 0.00 0.00 0.00 76 1014.0
20200222142122 47 89 0.0 1.0 0.00 0.00 0.00 76 1014.0
20200222142022 47 89 0.0 2.0 0.00 0.00 0.00 76 1013.9
20200222141917 47 89 1.0 2.0 0.00 0.00 0.00 76 1013.9
20200222141816 47 89 1.0 2.0 0.00 0.00 0.00 76 1013.9
20200222141711 47 89 1.0 2.0 0.00 0.00 0.00 76 1013.9
20200222141610 47 89 1.0 2.0 0.00 0.00 0.00 76 1013.9
20200222141504 47 89 1.0 2.0 0.00 0.00 0.00 76 1013.9
20200222141338 47 89 1.0 2.0 0.00 0.00 0.00 76 1013.8
20200222141258 47 89 1.0 2.0 0.00 0.00 0.00 76 1013.8
20200222141158 47 89 1.0 2.0 0.00 0.00 0.00 76 1013.9
20200222141052 46 98 1.0 2.0 0.00 0.00 0.00 76 1013.9
20200222140951 46 113 1.0 2.0 0.00 0.00 0.00 76 1013.9
20200222140846 46 113 1.0 2.0 0.00 0.00 0.00 76 1014.0
20200222140835 46 115 1.0 2.0 0.00 0.00 0.00 76 1014.0
20200222140746 46 102 0.0 2.0 0.00 0.00 0.00 76 1014.0
20200222140642 46 104 0.0 2.0 0.00 0.00 0.00 76 1013.9
20200222140542 46 97 0.0 2.0 0.00 0.00 0.00 76 1014.0
20200222140443 46 107 0.0 1.0 0.00 0.00 0.00 76 1013.9
20200222140346 46 108 0.0 1.0 0.00 0.00 0.00 76 1013.8
20200222140336 46 107 0.0 1.0 0.00 0.00 0.00 76 1013.8
20200222140243 46 107 0.0 1.0 0.00 0.00 0.00 76 1013.8
20200222140139 46 108 0.0 1.0 0.00 0.00 0.00 76 1013.8
20200222140038 46 108 0.0 1.0 0.00 0.00 0.00 76 1013.8
20200222135938 46 107 0.0 1.0 0.00 0.00 0.00 76 1013.8
20200222135839 46 107 0.0 1.0 0.00 0.00 0.00 76 1013.8
20200222135732 46 108 0.0 1.0 0.00 0.00 0.00 76 1013.8
20200222135631 46 107 0.0 1.0 0.00 0.00 0.00 76 1013.8
20200222135528 46 107 0.0 1.0 0.00 0.00 0.00 76 1013.8
20200222135426 46 108 0.0 1.0 0.00 0.00 0.00 76 1013.7
20200222135320 46 110 0.0 1.0 0.00 0.00 0.00 75 1013.7
20200222135220 46 110 0.0 1.0 0.00 0.00 0.00 76 1013.6
20200222135116 46 110 0.0 1.0 0.00 0.00 0.00 75 1013.6
20200222135013 46 110 0.0 1.0 0.00 0.00 0.00 76 1013.6
20200222134908 46 110 0.0 1.0 0.00 0.00 0.00 76 1013.7
20200222134827 46 110 0.0 1.0 0.00 0.00 0.00 76 1013.6
20200222134808 46 110 0.0 1.0 0.00 0.00 0.00 76 1013.7
20200222134702 46 110 0.0 1.0 0.00 0.00 0.00 76 1013.7
20200222134602 46 110 0.0 1.0 0.00 0.00 0.00 75 1013.7
20200222134456 46 110 0.0 1.0 0.00 0.00 0.00 75 1013.7
20200222134356 46 110 0.0 1.0 0.00 0.00 0.00 75 1013.7
20200222134325 46 110 0.0 1.0 0.00 0.00 0.00 75 1013.7
20200222134250 46 110 0.0 1.0 0.00 0.00 0.00 75 1013.7
20200222134150 46 110 0.0 1.0 0.00 0.00 0.00 75 1013.7
20200222134044 46 110 0.0 1.0 0.00 0.00 0.00 75 1013.7
20200222133945 46 110 0.0 1.0 0.00 0.00 0.00 75 1013.7
20200222133823 46 110 0.0 1.0 0.00 0.00 0.00 75 1013.7
20200222133738 46 110 0.0 1.0 0.00 0.00 0.00 75 1013.7
20200222133632 46 110 0.0 0.0 0.00 0.00 0.00 75 1013.7
20200222133532 46 110 0.0 0.0 0.00 0.00 0.00 75 1013.7
20200222133426 46 110 0.0 0.0 0.00 0.00 0.00 75 1013.6
20200222133328 46 110 0.0 0.0 0.00 0.00 0.00 75 1013.6
20200222133220 46 110 0.0 0.0 0.00 0.00 0.00 75 1013.6
20200222133120 46 110 0.0 0.0 0.00 0.00 0.00 75 1013.7
20200222133014 46 110 0.0 0.0 0.00 0.00 0.00 75 1013.6
20200222132913 46 110 0.0 0.0 0.00 0.00 0.00 75 1013.6
20200222132808 46 110 0.0 0.0 0.00 0.00 0.00 75 1013.7
20200222132708 46 110 0.0 0.0 0.00 0.00 0.00 75 1013.7
20200222132602 46 110 0.0 0.0 0.00 0.00 0.00 75 1013.7
20200222132501 46 110 0.0 0.0 0.00 0.00 0.00 75 1013.7
20200222132356 46 110 0.0 0.0 0.00 0.00 0.00 75 1013.7
20200222132316 46 110 0.0 0.0 0.00 0.00 0.00 75 1013.7
20200222132255 46 110 0.0 0.0 0.00 0.00 0.00 75 1013.7
20200222132150 46 110 0.0 0.0 0.00 0.00 0.00 75 1013.7
20200222132050 46 110 0.0 0.0 0.00 0.00 0.00 75 1013.7
20200222131944 46 110 0.0 0.0 0.00 0.00 0.00 75 1013.7
20200222131844 46 110 0.0 0.0 0.00 0.00 0.00 74 1013.7
20200222131814 46 110 0.0 0.0 0.00 0.00 0.00 74 1013.7
20200222131738 46 110 0.0 0.0 0.00 0.00 0.00 74 1013.7
20200222131637 46 110 0.0 0.0 0.00 0.00 0.00 74 1013.7
20200222131532 46 110 0.0 0.0 0.00 0.00 0.00 74 1013.7
20200222131432 46 110 0.0 0.0 0.00 0.00 0.00 74 1013.7
20200222131311 46 110 0.0 0.0 0.00 0.00 0.00 74 1013.6
20200222131227 46 110 0.0 0.0 0.00 0.00 0.00 74 1013.7
20200222131120 46 110 0.0 0.0 0.00 0.00 0.00 74 1013.6
20200222131020 46 110 0.0 0.0 0.00 0.00 0.00 74 1013.7
20200222130914 46 110 0.0 0.0 0.00 0.00 0.00 74 1013.7
20200222130816 46 110 0.0 0.0 0.00 0.00 0.00 74 1013.7
20200222130704 46 110 0.0 0.0 0.00 0.00 0.00 74 1013.7
20200222130604 46 110 0.0 0.0 0.00 0.00 0.00 74 1013.7
20200222130458 46 110 0.0 0.0 0.00 0.00 0.00 74 1013.7
20200222130358 46 110 0.0 0.0 0.00 0.00 0.00 74 1013.7
20200222130304 46 110 0.0 0.0 0.00 0.00 0.00 74 1013.7
20200222130252 46 110 0.0 0.0 0.00 0.00 0.00 74 1013.7
20200222130151 46 110 0.0 0.0 0.00 0.00 0.00 74 1013.7
20200222130047 46 110 0.0 0.0 0.00 0.00 0.00 74 1013.7
20200222125947 46 110 0.0 0.0 0.00 0.00 0.00 73 1013.7
20200222125840 46 110 0.0 0.0 0.00 0.00 0.00 73 1013.7
20200222125804 46 110 0.0 0.0 0.00 0.00 0.00 73 1013.7
20200222125740 46 110 0.0 0.0 0.00 0.00 0.00 73 1013.7
20200222125634 46 110 0.0 0.0 0.00 0.00 0.00 73 1013.7
20200222125534 46 110 0.0 0.0 0.00 0.00 0.00 73 1013.7
20200222125428 46 110 0.0 0.0 0.00 0.00 0.00 73 1013.7
20200222125304 46 110 0.0 0.0 0.00 0.00 0.00 73 1013.7
20200222125222 46 110 0.0 0.0 0.00 0.00 0.00 73 1013.7
20200222125122 46 110 0.0 0.0 0.00 0.00 0.00 73 1013.7
20200222125016 46 110 0.0 0.0 0.00 0.00 0.00 73 1013.7
20200222124915 46 110 0.0 0.0 0.00 0.00 0.00 73 1013.7
20200222124804 46 110 0.0 0.0 0.00 0.00 0.00 73 1013.7
20200222124710 46 110 0.0 0.0 0.00 0.00 0.00 73 1013.6
20200222124604 46 110 0.0 0.0 0.00 0.00 0.00 73 1013.7
20200222124504 46 110 0.0 0.0 0.00 0.00 0.00 73 1013.7
20200222124358 46 110 0.0 0.0 0.00 0.00 0.00 72 1013.7
20200222124257 46 110 0.0 0.0 0.00 0.00 0.00 72 1013.7
20200222124152 47 110 0.0 0.0 0.00 0.00 0.00 72 1013.7
20200222124052 47 110 0.0 0.0 0.00 0.00 0.00 71 1013.7
20200222123947 47 110 0.0 0.0 0.00 0.00 0.00 71 1013.7
20200222123846 47 110 0.0 0.0 0.00 0.00 0.00 71 1013.7
20200222123740 47 110 0.0 0.0 0.00 0.00 0.00 71 1013.6
20200222123639 47 110 0.0 0.0 0.00 0.00 0.00 70 1013.7
20200222123534 47 110 0.0 0.0 0.00 0.00 0.00 70 1013.7
20200222123434 47 110 0.0 1.0 0.00 0.00 0.00 70 1013.6
20200222123328 47 110 0.0 1.0 0.00 0.00 0.00 70 1013.6
20200222123228 47 110 0.0 1.0 0.00 0.00 0.00 69 1013.6
20200222123123 47 110 0.0 1.0 0.00 0.00 0.00 70 1013.6
20200222123023 47 110 0.0 1.0 0.00 0.00 0.00 69 1013.6
20200222122916 47 110 0.0 1.0 0.00 0.00 0.00 69 1013.7
20200222122816 47 110 0.0 1.0 0.00 0.00 0.00 69 1013.7
20200222122754 47 110 0.0 1.0 0.00 0.00 0.00 69 1013.7
20200222122710 47 110 0.0 1.0 0.00 0.00 0.00 69 1013.7
20200222122609 47 110 0.0 1.0 0.00 0.00 0.00 70 1013.7
20200222122504 47 110 0.0 1.0 0.00 0.00 0.00 70 1013.7
20200222122404 47 110 0.0 1.0 0.00 0.00 0.00 70 1013.7
20200222122251 47 110 0.0 1.0 0.00 0.00 0.00 70 1013.7
20200222122157 47 110 0.0 0.0 0.00 0.00 0.00 70 1013.7
20200222122053 47 110 0.0 0.0 0.00 0.00 0.00 70 1013.6
20200222121951 47 110 0.0 0.0 0.00 0.00 0.00 70 1013.6
20200222121846 47 110 0.0 0.0 0.00 0.00 0.00 69 1013.6
20200222121746 47 110 0.0 0.0 0.00 0.00 0.00 69 1013.6
20200222121640 47 110 0.0 0.0 0.00 0.00 0.00 70 1013.6
20200222121539 47 110 0.0 1.0 0.00 0.00 0.00 70 1013.6
20200222121434 47 110 0.0 1.0 0.00 0.00 0.00 69 1013.6
20200222121334 47 110 0.0 1.0 0.00 0.00 0.00 69 1013.7
20200222121228 47 110 0.0 1.0 0.00 0.00 0.00 69 1013.6
20200222121128 48 110 0.0 1.0 0.00 0.00 0.00 69 1013.7
20200222121022 48 110 0.0 1.0 0.00 0.00 0.00 69 1013.6
20200222120922 48 110 0.0 1.0 0.00 0.00 0.00 69 1013.7
20200222120816 48 110 0.0 1.0 0.00 0.00 0.00 69 1013.6
20200222120748 48 110 0.0 1.0 0.00 0.00 0.00 69 1013.6
20200222120715 48 110 0.0 1.0 0.00 0.00 0.00 69 1013.6
20200222120609 48 110 0.0 1.0 0.00 0.00 0.00 69 1013.6
20200222120512 48 242 0.0 1.0 0.00 0.00 0.00 69 1013.5
20200222120404 48 242 0.0 1.0 0.00 0.00 0.00 68 1013.5
20200222120304 48 242 0.0 1.0 0.00 0.00 0.00 68 1013.5
20200222120245 48 243 0.0 1.0 0.00 0.00 0.00 68 1013.5
20200222120157 48 242 0.0 1.0 0.00 0.00 0.00 68 1013.5
20200222120100 48 242 0.0 1.0 0.00 0.00 0.00 68 1013.4
20200222115952 48 241 0.0 1.0 0.00 0.00 0.00 68 1013.4
20200222115852 48 228 0.0 1.0 0.00 0.00 0.00 68 1013.4
20200222115748 48 232 0.0 1.0 0.00 0.00 0.00 68 1013.5
20200222115647 48 232 0.0 1.0 0.00 0.00 0.00 68 1013.5
20200222115540 48 222 0.0 1.0 0.00 0.00 0.00 68 1013.5
20200222115439 48 222 0.0 3.0 0.00 0.00 0.00 68 1013.5
20200222115334 48 222 0.0 3.0 0.00 0.00 0.00 68 1013.5
20200222115244 48 223 0.0 3.0 0.00 0.00 0.00 68 1013.5
20200222115233 48 222 0.0 3.0 0.00 0.00 0.00 68 1013.5
20200222115129 48 224 0.0 3.0 0.00 0.00 0.00 69 1013.5
20200222115027 48 224 0.0 3.0 0.00 0.00 0.00 69 1013.5
20200222114922 48 223 0.0 3.0 0.00 0.00 0.00 69 1013.5
20200222114821 48 224 0.0 3.0 0.00 0.00 0.00 69 1013.4
20200222114716 48 224 0.0 3.0 0.00 0.00 0.00 69 1013.4
20200222114615 48 225 0.0 3.0 0.00 0.00 0.00 69 1013.4
20200222114510 48 252 0.0 3.0 0.00 0.00 0.00 69 1013.4
20200222114410 48 266 0.0 2.0 0.00 0.00 0.00 69 1013.4
20200222114243 49 256 0.0 2.0 0.00 0.00 0.00 69 1013.4
20200222114203 49 223 0.0 3.0 0.00 0.00 0.00 69 1013.4
20200222114058 49 224 1.0 3.0 0.00 0.00 0.00 68 1013.4
20200222113957 49 145 1.0 4.0 0.00 0.00 0.00 68 1013.4
20200222113852 49 235 1.0 6.0 0.00 0.00 0.00 68 1013.4
20200222113739 49 235 1.0 6.0 0.00 0.00 0.00 68 1013.4
20200222113646 49 235 2.0 6.0 0.00 0.00 0.00 68 1013.4
20200222113546 49 235 2.0 6.0 0.00 0.00 0.00 68 1013.4
20200222113440 49 234 2.0 6.0 0.00 0.00 0.00 68 1013.4
20200222113339 49 235 3.0 6.0 0.00 0.00 0.00 68 1013.4
20200222113234 49 239 3.0 6.0 0.00 0.00 0.00 68 1013.3
20200222113134 49 226 3.0 8.0 0.00 0.00 0.00 68 1013.3
20200222113028 49 238 3.0 8.0 0.00 0.00 0.00 68 1013.3
20200222112928 49 218 3.0 8.0 0.00 0.00 0.00 68 1013.3
20200222112822 49 226 3.0 8.0 0.00 0.00 0.00 68 1013.2
20200222112738 49 250 3.0 8.0 0.00 0.00 0.00 68 1013.2
20200222112722 49 218 3.0 8.0 0.00 0.00 0.00 68 1013.2
20200222112616 49 229 4.0 9.0 0.00 0.00 0.00 68 1013.2
20200222112516 49 219 4.0 10.0 0.00 0.00 0.00 67 1013.2
20200222112410 49 225 4.0 10.0 0.00 0.00 0.00 67 1013.2
20200222112310 49 239 4.0 10.0 0.00 0.00 0.00 67 1013.2
20200222112238 50 231 4.0 10.0 0.00 0.00 0.00 67 1013.2
20200222112204 50 223 4.0 10.0 0.00 0.00 0.00 67 1013.2
20200222112104 50 228 4.0 10.0 0.00 0.00 0.00 67 1013.2
20200222111958 50 225 4.0 10.0 0.00 0.00 0.00 67 1013.2
20200222111858 50 230 4.0 10.0 0.00 0.00 0.00 67 1013.2
20200222111752 50 224 4.0 10.0 0.00 0.00 0.00 67 1013.2
20200222111737 50 235 4.0 10.0 0.00 0.00 0.00 67 1013.2
20200222111651 50 239 4.0 10.0 0.00 0.00 0.00 68 1013.2
20200222111546 50 245 4.0 8.0 0.00 0.00 0.00 68 1013.2
20200222111446 50 228 4.0 8.0 0.00 0.00 0.00 68 1013.3
20200222111340 50 214 4.0 8.0 0.00 0.00 0.00 68 1013.3
20200222111241 50 212 4.0 8.0 0.00 0.00 0.00 68 1013.3
20200222111134 50 248 4.0 8.0 0.00 0.00 0.00 68 1013.3
20200222111034 50 210 4.0 8.0 0.00 0.00 0.00 68 1013.3
20200222110928 50 213 4.0 8.0 0.00 0.00 0.00 68 1013.2
20200222110828 50 233 4.0 8.0 0.00 0.00 0.00 68 1013.2
20200222110733 49 250 3.0 7.0 0.00 0.00 0.00 68 1013.2
20200222110722 49 224 3.0 7.0 0.00 0.00 0.00 68 1013.2
20200222110622 49 233 3.0 7.0 0.00 0.00 0.00 68 1013.2
20200222110516 49 215 3.0 7.0 0.00 0.00 0.00 69 1013.2
20200222110416 49 208 3.0 6.0 0.00 0.00 0.00 69 1013.3
20200222110310 49 245 3.0 6.0 0.00 0.00 0.00 69 1013.3
20200222110233 49 205 3.0 6.0 0.00 0.00 0.00 69 1013.3
20200222110210 49 231 3.0 6.0 0.00 0.00 0.00 69 1013.3
20200222110104 49 226 3.0 6.0 0.00 0.00 0.00 69 1013.3
20200222110005 49 198 2.0 6.0 0.00 0.00 0.00 69 1013.3
20200222105858 49 232 2.0 6.0 0.00 0.00 0.00 69 1013.3
20200222105758 49 203 2.0 5.0 0.00 0.00 0.00 69 1013.3
20200222105731 49 201 2.0 5.0 0.00 0.00 0.00 69 1013.3
20200222105652 49 224 2.0 5.0 0.00 0.00 0.00 69 1013.3
20200222105552 49 188 2.0 5.0 0.00 0.00 0.00 70 1013.3
20200222105446 49 217 2.0 5.0 0.00 0.00 0.00 70 1013.3
20200222105347 49 223 2.0 5.0 0.00 0.00 0.00 70 1013.3
20200222105241 49 203 2.0 5.0 0.00 0.00 0.00 70 1013.4
20200222105231 49 224 2.0 5.0 0.00 0.00 0.00 70 1013.4
20200222105141 49 104 2.0 5.0 0.00 0.00 0.00 70 1013.3
20200222105034 49 205 2.0 5.0 0.00 0.00 0.00 70 1013.3
20200222104934 49 207 2.0 5.0 0.00 0.00 0.00 70 1013.4
20200222104828 49 208 2.0 4.0 0.00 0.00 0.00 70 1013.4
20200222104734 49 186 2.0 3.0 0.00 0.00 0.00 70 1013.4
20200222104728 49 224 2.0 3.0 0.00 0.00 0.00 70 1013.4
20200222104622 49 204 1.0 3.0 0.00 0.00 0.00 70 1013.4
20200222104522 49 179 1.0 3.0 0.00 0.00 0.00 70 1013.4
20200222104416 49 163 2.0 3.0 0.00 0.00 0.00 70 1013.4
20200222104316 49 165 2.0 3.0 0.00 0.00 0.00 70 1013.4
20200222104231 49 226 2.0 3.0 0.00 0.00 0.00 70 1013.4
20200222104210 49 193 2.0 3.0 0.00 0.00 0.00 70 1013.4
20200222104110 49 181 1.0 3.0 0.00 0.00 0.00 70 1013.4
20200222104004 49 194 1.0 3.0 0.00 0.00 0.00 70 1013.4
20200222103905 49 143 2.0 3.0 0.00 0.00 0.00 70 1013.4
20200222103730 49 195 2.0 3.0 0.00 0.00 0.00 70 1013.4
20200222103659 49 174 2.0 3.0 0.00 0.00 0.00 70 1013.4
20200222103552 49 198 2.0 3.0 0.00 0.00 0.00 70 1013.3
20200222103453 49 193 2.0 3.0 0.00 0.00 0.00 70 1013.4
20200222103346 49 210 2.0 3.0 0.00 0.00 0.00 70 1013.4
20200222103247 49 194 2.0 3.0 0.00 0.00 0.00 70 1013.4
20200222103229 49 225 2.0 3.0 0.00 0.00 0.00 70 1013.4
20200222103142 49 186 1.0 3.0 0.00 0.00 0.00 69 1013.4
20200222103041 49 184 1.0 3.0 0.00 0.00 0.00 69 1013.4
20200222102935 49 173 1.0 3.0 0.00 0.00 0.00 69 1013.4
20200222102833 49 174 1.0 3.0 0.00 0.00 0.00 69 1013.4
20200222102735 49 154 1.0 3.0 0.00 0.00 0.00 69 1013.5
20200222102729 49 162 1.0 3.0 0.00 0.00 0.00 69 1013.5
20200222102627 49 210 1.0 3.0 0.00 0.00 0.00 69 1013.4
20200222102522 50 164 1.0 3.0 0.00 0.00 0.00 69 1013.4
20200222102422 50 214 1.0 4.0 0.00 0.00 0.00 68 1013.4
20200222102316 50 157 2.0 5.0 0.00 0.00 0.00 68 1013.4
20200222102228 50 144 2.0 5.0 0.00 0.00 0.00 68 1013.4
20200222102216 50 195 2.0 5.0 0.00 0.00 0.00 68 1013.4
20200222102110 50 203 2.0 5.0 0.00 0.00 0.00 68 1013.4
20200222102009 50 122 2.0 5.0 0.00 0.00 0.00 68 1013.4
20200222101904 50 143 2.0 5.0 0.00 0.00 0.00 68 1013.5
20200222101803 50 127 2.0 5.0 0.00 0.00 0.00 68 1013.5
20200222101726 50 136 2.0 5.0 0.00 0.00 0.00 68 1013.5
20200222101658 50 132 2.0 5.0 0.00 0.00 0.00 68 1013.5
20200222101558 50 141 2.0 5.0 0.00 0.00 0.00 68 1013.5
20200222101452 50 133 2.0 5.0 0.00 0.00 0.00 68 1013.5
20200222101351 50 136 2.0 5.0 0.00 0.00 0.00 68 1013.6
20200222101246 50 125 2.0 5.0 0.00 0.00 0.00 68 1013.6
20200222101226 50 142 2.0 5.0 0.00 0.00 0.00 68 1013.6
20200222101145 50 137 2.0 5.0 0.00 0.00 0.00 68 1013.5
20200222101040 50 146 2.0 5.0 0.00 0.00 0.00 68 1013.6
20200222100939 50 132 2.0 5.0 0.00 0.00 0.00 68 1013.5
20200222100834 50 139 2.0 5.0 0.00 0.00 0.00 68 1013.5
20200222100734 50 138 2.0 5.0 0.00 0.00 0.00 68 1013.5
20200222100719 50 139 2.0 5.0 0.00 0.00 0.00 68 1013.5
20200222100628 50 129 1.0 5.0 0.00 0.00 0.00 68 1013.4
20200222100528 50 148 1.0 5.0 0.00 0.00 0.00 68 1013.5
20200222100422 50 129 1.0 5.0 0.00 0.00 0.00 68 1013.5
20200222100321 50 132 1.0 4.0 0.00 0.00 0.00 68 1013.5
20200222100222 50 124 1.0 5.0 0.00 0.00 0.00 68 1013.5
20200222100216 50 110 1.0 5.0 0.00 0.00 0.00 68 1013.5
20200222100116 50 108 2.0 7.0 0.00 0.00 0.00 67 1013.5
20200222100010 50 105 2.0 7.0 0.00 0.00 0.00 67 1013.4
20200222095910 50 103 2.0 7.0 0.00 0.00 0.00 67 1013.3
20200222095804 50 103 2.0 7.0 0.00 0.00 0.00 67 1013.2
20200222095720 50 103 2.0 7.0 0.00 0.00 0.00 67 1013.2
20200222095703 50 103 2.0 7.0 0.00 0.00 0.00 67 1013.3
20200222095558 50 103 2.0 7.0 0.00 0.00 0.00 67 1013.3
20200222095457 50 103 2.0 7.0 0.00 0.00 0.00 68 1013.4
20200222095353 50 94 2.0 7.0 0.00 0.00 0.00 68 1013.4
20200222095251 50 132 2.0 7.0 0.00 0.00 0.00 68 1013.4
20200222095220 50 115 2.0 7.0 0.00 0.00 0.00 68 1013.4
20200222095146 50 84 1.0 7.0 0.00 0.00 0.00 69 1013.4
20200222095046 49 77 1.0 4.0 0.00 0.00 0.00 69 1013.4
20200222094940 49 95 1.0 4.0 0.00 0.00 0.00 70 1013.3
20200222094839 49 124 0.0 2.0 0.00 0.00 0.00 70 1013.2
20200222094734 49 126 0.0 2.0 0.00 0.00 0.00 71 1013.1
20200222094720 49 125 0.0 2.0 0.00 0.00 0.00 71 1013.1
20200222094633 48 283 0.0 1.0 0.00 0.00 0.00 71 1013.1
20200222094528 48 292 0.0 1.0 0.00 0.00 0.00 71 1013.0
20200222094428 48 292 0.0 0.0 0.00 0.00 0.00 71 1013.0
20200222094322 48 293 0.0 0.0 0.00 0.00 0.00 71 1013.0
20200222094223 48 292 0.0 0.0 0.00 0.00 0.00 71 1013.0
20200222094116 48 292 0.0 0.0 0.00 0.00 0.00 71 1013.0
20200222094017 48 292 0.0 0.0 0.00 0.00 0.00 71 1012.9
20200222093910 48 292 0.0 0.0 0.00 0.00 0.00 71 1012.9
20200222093810 48 292 0.0 0.0 0.00 0.00 0.00 71 1012.9
20200222093716 48 293 0.0 0.0 0.00 0.00 0.00 71 1012.9
20200222093704 48 292 0.0 0.0 0.00 0.00 0.00 71 1012.9
20200222093605 48 292 0.0 0.0 0.00 0.00 0.00 70 1012.9
20200222093458 48 293 0.0 0.0 0.00 0.00 0.00 70 1012.9
20200222093357 48 292 0.0 0.0 0.00 0.00 0.00 70 1013.0
20200222093252 48 293 0.0 0.0 0.00 0.00 0.00 70 1012.9
20200222093216 48 293 0.0 0.0 0.00 0.00 0.00 70 1012.9
20200222093151 48 292 0.0 0.0 0.00 0.00 0.00 70 1013.0
20200222093046 48 292 0.0 0.0 0.00 0.00 0.00 70 1013.0
20200222092946 48 292 0.0 0.0 0.00 0.00 0.00 70 1013.0
20200222092840 48 292 0.0 0.0 0.00 0.00 0.00 70 1013.0
20200222092739 48 292 0.0 0.0 0.00 0.00 0.00 70 1013.0
20200222092716 48 293 0.0 0.0 0.00 0.00 0.00 70 1013.0
20200222092634 48 293 0.0 0.0 0.00 0.00 0.00 70 1013.0
20200222092534 48 293 0.0 0.0 0.00 0.00 0.00 70 1013.0
20200222092429 48 293 0.0 0.0 0.00 0.00 0.00 69 1013.0
20200222092327 48 293 0.0 0.0 0.00 0.00 0.00 69 1013.0
20200222092216 48 293 0.0 0.0 0.00 0.00 0.00 69 1013.0
20200222092121 48 293 0.0 0.0 0.00 0.00 0.00 68 1013.0
20200222092016 48 292 0.0 0.0 0.00 0.00 0.00 68 1013.0
20200222091709 49 293 0.0 0.0 0.00 0.00 0.00 68 1013.0
20200222091358 49 292 0.0 0.0 0.00 0.00 0.00 67 1013.0
20200222091258 49 292 0.0 0.0 0.00 0.00 0.00 67 1013.0
20200222091213 49 292 0.0 0.0 0.00 0.00 0.00 67 1013.0
20200222091152 49 293 0.0 0.0 0.00 0.00 0.00 67 1013.0
20200222091052 49 292 0.0 0.0 0.00 0.00 0.00 66 1013.1
20200222090946 49 292 0.0 0.0 0.00 0.00 0.00 66 1013.0
20200222090846 49 292 0.0 0.0 0.00 0.00 0.00 66 1013.1
20200222090740 49 292 0.0 0.0 0.00 0.00 0.00 66 1013.1
20200222090709 50 292 0.0 0.0 0.00 0.00 0.00 66 1013.1
20200222090640 50 292 0.0 0.0 0.00 0.00 0.00 66 1013.1
20200222090534 50 293 0.0 0.0 0.00 0.00 0.00 66 1013.0
20200222090436 50 292 0.0 0.0 0.00 0.00 0.00 65 1013.1
20200222090328 50 293 0.0 0.0 0.00 0.00 0.00 65 1013.1
20200222090228 50 293 0.0 0.0 0.00 0.00 0.00 65 1013.0
20200222090209 50 292 0.0 0.0 0.00 0.00 0.00 65 1013.0
20200222090122 50 292 0.0 0.0 0.00 0.00 0.00 65 1013.1
20200222090024 50 293 0.0 0.0 0.00 0.00 0.00 65 1013.1
20200222085917 51 293 0.0 0.0 0.00 0.00 0.00 65 1013.1
20200222085815 51 293 0.0 0.0 0.00 0.00 0.00 65 1013.1
20200222085711 51 293 0.0 0.0 0.00 0.00 0.00 64 1013.1
20200222085610 51 293 0.0 0.0 0.00 0.00 0.00 63 1013.1
20200222085504 51 292 0.0 0.0 0.00 0.00 0.00 63 1013.1
20200222085404 51 292 0.0 1.0 0.00 0.00 0.00 63 1013.1
20200222085258 51 293 0.0 1.0 0.00 0.00 0.00 62 1013.1
20200222085207 51 293 0.0 1.0 0.00 0.00 0.00 62 1013.1
20200222085200 51 292 0.0 1.0 0.00 0.00 0.00 62 1013.1
20200222085052 51 292 0.0 2.0 0.00 0.00 0.00 62 1013.1
20200222084951 51 293 0.0 2.0 0.00 0.00 0.00 62 1013.1
20200222084846 52 293 0.0 3.0 0.00 0.00 0.00 62 1013.1
20200222084746 52 292 0.0 3.0 0.00 0.00 0.00 62 1013.1
20200222084707 52 293 0.0 3.0 0.00 0.00 0.00 62 1013.1
20200222084640 52 293 0.0 3.0 0.00 0.00 0.00 62 1013.1
20200222084545 52 292 0.0 3.0 0.00 0.00 0.00 62 1013.1
20200222084435 52 293 0.0 3.0 0.00 0.00 0.00 62 1013.1
20200222084334 51 300 0.0 3.0 0.00 0.00 0.00 63 1013.0
20200222084207 51 293 0.0 3.0 0.00 0.00 0.00 63 1013.0
20200222084128 51 294 0.0 3.0 0.00 0.00 0.00 64 1013.0
20200222084022 51 296 0.0 3.0 0.00 0.00 0.00 64 1013.0
20200222083922 51 295 0.0 3.0 0.00 0.00 0.00 64 1013.0
20200222083816 51 326 0.0 1.0 0.00 0.00 0.00 64 1013.0
20200222083704 51 326 0.0 1.0 0.00 0.00 0.00 64 1013.0
20200222083610 51 326 0.0 1.0 0.00 0.00 0.00 64 1013.0
20200222083510 51 326 0.0 1.0 0.00 0.00 0.00 64 1013.0
20200222083403 51 326 0.0 1.0 0.00 0.00 0.00 64 1013.1
20200222083303 51 326 0.0 1.0 0.00 0.00 0.00 64 1013.1
20200222083204 51 314 0.0 1.0 0.00 0.00 0.00 64 1013.1
20200222083158 51 314 0.0 1.0 0.00 0.00 0.00 64 1013.1
20200222083101 51 314 0.0 1.0 0.00 0.00 0.00 64 1013.1
20200222082953 51 315 0.0 1.0 0.00 0.00 0.00 64 1013.1
20200222082853 51 315 0.0 1.0 0.00 0.00 0.00 64 1013.1
20200222082746 51 314 0.0 1.0 0.00 0.00 0.00 64 1013.1
20200222082704 51 314 0.0 1.0 0.00 0.00 0.00 64 1013.1
20200222082647 51 314 0.0 1.0 0.00 0.00 0.00 64 1013.1
20200222082540 51 314 0.0 2.0 0.00 0.00 0.00 64 1013.1
20200222082439 51 336 0.0 2.0 0.00 0.00 0.00 64 1013.1
20200222082334 51 335 0.0 2.0 0.00 0.00 0.00 64 1013.2
20200222082204 51 335 0.0 2.0 0.00 0.00 0.00 64 1013.2
20200222082130 51 336 0.0 2.0 0.00 0.00 0.00 64 1013.2
20200222082028 51 303 0.0 2.0 0.00 0.00 0.00 65 1013.2
20200222081924 51 304 0.0 2.0 0.00 0.00 0.00 65 1013.2
20200222081822 51 304 0.0 2.0 0.00 0.00 0.00 66 1013.1
20200222081717 50 303 0.0 2.0 0.00 0.00 0.00 66 1013.2
20200222081701 50 304 0.0 2.0 0.00 0.00 0.00 67 1013.2
20200222081618 50 304 0.0 2.0 0.00 0.00 0.00 67 1013.2
20200222081511 50 302 0.0 2.0 0.00 0.00 0.00 67 1013.2
20200222081410 50 302 0.0 2.0 0.00 0.00 0.00 68 1013.2
20200222081304 49 300 0.0 2.0 0.00 0.00 0.00 68 1013.2
20200222081205 49 304 0.0 2.0 0.00 0.00 0.00 68 1013.2
20200222081058 49 304 0.0 2.0 0.00 0.00 0.00 69 1013.2
20200222080958 49 304 0.0 2.0 0.00 0.00 0.00 69 1013.2
20200222080852 49 304 0.0 2.0 0.00 0.00 0.00 69 1013.2
20200222080752 49 307 0.0 2.0 0.00 0.00 0.00 69 1013.3
20200222080650 49 307 0.0 2.0 0.00 0.00 0.00 69 1013.2
20200222080548 49 307 0.0 2.0 0.00 0.00 0.00 69 1013.2
20200222080448 49 307 0.0 2.0 0.00 0.00 0.00 68 1013.2
20200222080346 49 302 0.0 0.0 0.00 0.00 0.00 68 1013.2
20200222080246 49 302 0.0 0.0 0.00 0.00 0.00 68 1013.2
20200222080158 49 302 0.0 0.0 0.00 0.00 0.00 68 1013.2
20200222080146 49 302 0.0 0.0 0.00 0.00 0.00 67 1013.2
20200222080044 49 302 0.0 0.0 0.00 0.00 0.00 67 1013.2
20200222075945 49 302 0.0 0.0 0.00 0.00 0.00 67 1013.2
20200222075844 49 302 0.0 0.0 0.00 0.00 0.00 67 1013.2
20200222075739 49 302 0.0 0.0 0.00 0.00 0.00 67 1013.2
20200222075638 49 302 0.0 0.0 0.00 0.00 0.00 67 1013.2
20200222075532 49 302 0.0 0.0 0.00 0.00 0.00 67 1013.2
20200222075433 49 302 0.0 0.0 0.00 0.00 0.00 67 1013.3
20200222075326 50 302 0.0 0.0 0.00 0.00 0.00 66 1013.3
20200222075225 50 302 0.0 0.0 0.00 0.00 0.00 66 1013.3
20200222075157 50 302 0.0 0.0 0.00 0.00 0.00 66 1013.3
20200222075121 50 302 0.0 0.0 0.00 0.00 0.00 66 1013.3
20200222075020 50 302 0.0 0.0 0.00 0.00 0.00 66 1013.3
20200222074914 50 302 0.0 0.0 0.00 0.00 0.00 66 1013.3
20200222074814 50 302 0.0 0.0 0.00 0.00 0.00 66 1013.4
20200222074708 50 302 0.0 0.0 0.00 0.00 0.00 65 1013.4
20200222074654 50 302 0.0 0.0 0.00 0.00 0.00 65 1013.4
20200222074608 50 302 0.0 0.0 0.00 0.00 0.00 64 1013.4
20200222074503 50 302 0.0 0.0 0.00 0.00 0.00 64 1013.4
20200222074402 51 302 0.0 0.0 0.00 0.00 0.00 64 1013.4
20200222074256 51 302 0.0 0.0 0.00 0.00 0.00 64 1013.4
20200222074157 51 302 0.0 0.0 0.00 0.00 0.00 64 1013.4
20200222074050 51 302 0.0 0.0 0.00 0.00 0.00 64 1013.4
20200222073950 51 302 0.0 0.0 0.00 0.00 0.00 64 1013.5
20200222073845 51 302 0.0 0.0 0.00 0.00 0.00 64 1013.4
20200222073744 51 302 0.0 0.0 0.00 0.00 0.00 63 1013.5
20200222073638 51 302 0.0 0.0 0.00 0.00 0.00 63 1013.5
20200222073538 51 302 0.0 0.0 0.00 0.00 0.00 62 1013.4
20200222073432 52 302 0.0 0.0 0.00 0.00 0.00 62 1013.5
20200222073332 52 302 0.0 0.0 0.00 0.00 0.00 62 1013.5
20200222073226 52 302 0.0 0.0 0.00 0.00 0.00 61 1013.4
20200222073126 52 302 0.0 0.0 0.00 0.00 0.00 61 1013.5
20200222073021 52 302 0.0 0.0 0.00 0.00 0.00 61 1013.5
20200222072919 53 302 0.0 0.0 0.00 0.00 0.00 61 1013.5
20200222072814 53 302 0.0 0.0 0.00 0.00 0.00 61 1013.5
20200222072714 53 302 0.0 0.0 0.00 0.00 0.00 60 1013.5
20200222072646 53 302 0.0 0.0 0.00 0.00 0.00 60 1013.5
20200222072609 53 302 0.0 0.0 0.00 0.00 0.00 60 1013.5
20200222072507 53 302 0.0 0.0 0.00 0.00 0.00 60 1013.4
20200222072406 53 302 0.0 0.0 0.00 0.00 0.00 60 1013.4
20200222072306 53 302 0.0 0.0 0.00 0.00 0.00 60 1013.4
20200222072146 54 302 0.0 0.0 0.00 0.00 0.00 60 1013.4
20200222072105 54 302 0.0 0.0 0.00 0.00 0.00 60 1013.5
20200222072005 54 302 0.0 0.0 0.00 0.00 0.00 60 1013.4
20200222071905 54 302 0.0 0.0 0.00 0.00 0.00 60 1013.5
20200222071804 54 302 0.0 0.0 0.00 0.00 0.00 59 1013.4
20200222071644 54 302 0.0 0.0 0.00 0.00 0.00 59 1013.5
20200222071557 54 302 0.0 0.0 0.00 0.00 0.00 59 1013.5
20200222071452 54 302 0.0 0.0 0.00 0.00 0.00 59 1013.5
20200222071352 54 302 0.0 0.0 0.00 0.00 0.00 59 1013.5
20200222071246 54 302 0.0 0.0 0.00 0.00 0.00 59 1013.5
20200222071147 54 302 0.0 0.0 0.00 0.00 0.00 59 1013.5
20200222071040 54 302 0.0 0.0 0.00 0.00 0.00 58 1013.6
20200222070940 54 302 0.0 0.0 0.00 0.00 0.00 58 1013.6
20200222070834 54 302 0.0 0.0 0.00 0.00 0.00 58 1013.6
20200222070733 54 302 0.0 0.0 0.00 0.00 0.00 58 1013.6
20200222070629 55 302 0.0 0.0 0.00 0.00 0.00 58 1013.6
20200222070527 55 302 0.0 0.0 0.00 0.00 0.00 58 1013.6
20200222070422 55 302 0.0 0.0 0.00 0.00 0.00 58 1013.6
20200222070322 55 302 0.0 0.0 0.00 0.00 0.00 58 1013.7
20200222070217 55 302 0.0 0.0 0.00 0.00 0.00 58 1013.7
20200222070116 55 302 0.0 0.0 0.00 0.00 0.00 58 1013.7
20200222070010 56 302 0.0 0.0 0.00 0.00 0.00 57 1013.7
20200222065908 56 302 0.0 0.0 0.00 0.00 0.00 57 1013.7
20200222065802 56 302 0.0 0.0 0.00 0.00 0.00 57 1013.7
20200222065702 56 302 0.0 0.0 0.00 0.00 0.00 57 1013.7
20200222065639 56 302 0.0 0.0 0.00 0.00 0.00 56 1013.7
20200222065556 56 302 0.0 0.0 0.00 0.00 0.00 56 1013.7
20200222065456 56 302 0.0 0.0 0.00 0.00 0.00 56 1013.6
20200222065351 56 302 0.0 1.0 0.00 0.00 0.00 56 1013.6
20200222065249 56 302 0.0 1.0 0.00 0.00 0.00 55 1013.7
20200222065138 56 302 0.0 1.0 0.00 0.00 0.00 55 1013.6
20200222065044 57 302 0.0 1.0 0.00 0.00 0.00 55 1013.7
20200222064939 57 302 0.0 2.0 0.00 0.00 0.00 55 1013.6
20200222064837 57 302 0.0 2.0 0.00 0.00 0.00 55 1013.7
20200222064732 57 302 1.0 3.0 0.00 0.00 0.00 55 1013.6
20200222064631 57 302 1.0 4.0 0.00 0.00 0.00 55 1013.6
20200222064526 57 302 1.0 4.0 0.00 0.00 0.00 54 1013.6
20200222064425 57 302 1.0 4.0 0.00 0.00 0.00 54 1013.6
20200222064320 58 302 1.0 4.0 0.00 0.00 0.00 54 1013.7
20200222064220 58 302 1.0 4.0 0.00 0.00 0.00 54 1013.6
20200222064114 58 302 2.0 4.0 0.00 0.00 0.00 54 1013.6
20200222064014 58 309 2.0 4.0 0.00 0.00 0.00 54 1013.6
20200222063909 58 295 2.0 4.0 0.00 0.00 0.00 54 1013.7
20200222063808 58 271 2.0 4.0 0.00 0.00 0.00 54 1013.6
20200222063634 58 310 2.0 4.0 0.00 0.00 0.00 54 1013.6
20200222063602 58 293 2.0 4.0 0.00 0.00 0.00 54 1013.6
20200222063457 58 302 2.0 4.0 0.00 0.00 0.00 54 1013.7
20200222063355 58 318 2.0 4.0 0.00 0.00 0.00 54 1013.7
20200222063250 58 308 2.0 4.0 0.00 0.00 0.00 54 1013.7
20200222063149 58 301 2.0 4.0 0.00 0.00 0.00 54 1013.7
20200222063134 58 300 2.0 4.0 0.00 0.00 0.00 54 1013.7
20200222063042 58 314 2.0 4.0 0.00 0.00 0.00 54 1013.7
20200222062941 58 312 2.0 4.0 0.00 0.00 0.00 54 1013.7
20200222062837 58 312 2.0 4.0 0.00 0.00 0.00 54 1013.8
20200222062735 58 304 2.0 4.0 0.00 0.00 0.00 53 1013.8
20200222062637 58 304 2.0 4.0 0.00 0.00 0.00 53 1013.7
20200222062631 58 305 2.0 4.0 0.00 0.00 0.00 53 1013.7
20200222062530 58 307 2.0 4.0 0.00 0.00 0.00 53 1013.8
20200222062425 58 309 2.0 4.0 0.00 0.00 0.00 53 1013.7
20200222062324 58 304 2.0 4.0 0.00 0.00 0.00 53 1013.8
20200222062218 58 300 2.0 4.0 0.00 0.00 0.00 53 1013.8
20200222062117 58 302 2.0 4.0 0.00 0.00 0.00 53 1013.8
20200222062013 58 295 1.0 4.0 0.00 0.00 0.00 53 1013.7
20200222061912 58 300 1.0 4.0 0.00 0.00 0.00 53 1013.7
20200222061808 58 294 2.0 4.0 0.00 0.00 0.00 53 1013.8
20200222061707 58 301 2.0 4.0 0.00 0.00 0.00 53 1013.7
20200222061628 58 300 2.0 4.0 0.00 0.00 0.00 53 1013.7
20200222061600 58 295 2.0 4.0 0.00 0.00 0.00 53 1013.7
20200222061459 58 293 2.0 4.0 0.00 0.00 0.00 53 1013.7
20200222061355 58 312 2.0 5.0 0.00 0.00 0.00 53 1013.7
20200222061254 58 328 2.0 5.0 0.00 0.00 0.00 53 1013.7
20200222061148 58 304 2.0 5.0 0.00 0.00 0.00 53 1013.7
20200222061127 58 303 2.0 5.0 0.00 0.00 0.00 53 1013.7
20200222061047 58 304 2.0 5.0 0.00 0.00 0.00 53 1013.7
20200222060943 58 307 2.0 5.0 0.00 0.00 0.00 53 1013.8
20200222060841 58 301 2.0 5.0 0.00 0.00 0.00 53 1013.7
20200222060736 58 323 2.0 5.0 0.00 0.00 0.00 53 1013.7
20200222060635 58 304 2.0 5.0 0.00 0.00 0.00 53 1013.8
20200222060626 58 305 2.0 5.0 0.00 0.00 0.00 53 1013.8
20200222060530 58 312 2.0 5.0 0.00 0.00 0.00 53 1013.8
20200222060428 58 311 2.0 4.0 0.00 0.00 0.00 54 1013.8
20200222060322 58 309 2.0 4.0 0.00 0.00 0.00 54 1013.7
20200222060222 58 307 2.0 4.0 0.00 0.00 0.00 54 1013.8
20200222060117 58 307 2.0 4.0 0.00 0.00 0.00 54 1013.8
20200222060016 58 304 2.0 4.0 0.00 0.00 0.00 54 1013.8
20200222055911 58 300 2.0 5.0 0.00 0.00 0.00 54 1013.7
20200222055810 58 307 2.0 5.0 0.00 0.00 0.00 54 1013.7
20200222055705 58 316 2.0 5.0 0.00 0.00 0.00 54 1013.8
20200222055624 58 316 3.0 5.0 0.00 0.00 0.00 54 1013.8
20200222055603 58 282 3.0 6.0 0.00 0.00 0.00 55 1013.7
20200222055459 58 297 3.0 6.0 0.00 0.00 0.00 55 1013.7
20200222055358 58 303 3.0 6.0 0.00 0.00 0.00 55 1013.7
20200222055253 58 307 3.0 6.0 0.00 0.00 0.00 55 1013.7
20200222055152 58 310 3.0 6.0 0.00 0.00 0.00 55 1013.6
20200222055122 57 305 3.0 6.0 0.00 0.00 0.00 55 1013.6
20200222055046 57 335 3.0 6.0 0.00 0.00 0.00 55 1013.6
20200222054946 57 344 3.0 6.0 0.00 0.00 0.00 55 1013.6
20200222054841 57 302 2.0 6.0 0.00 0.00 0.00 56 1013.6
20200222054739 57 314 2.0 6.0 0.00 0.00 0.00 56 1013.5
20200222054634 57 322 2.0 6.0 0.00 0.00 0.00 56 1013.6
20200222054620 57 307 2.0 6.0 0.00 0.00 0.00 56 1013.6
20200222054533 57 326 2.0 4.0 0.00 0.00 0.00 56 1013.6
20200222054429 57 321 2.0 4.0 0.00 0.00 0.00 56 1013.6
20200222054328 57 289 2.0 4.0 0.00 0.00 0.00 56 1013.7
20200222054223 57 314 1.0 4.0 0.00 0.00 0.00 56 1013.7
20200222054123 57 317 1.0 4.0 0.00 0.00 0.00 56 1013.8
20200222054017 56 305 1.0 3.0 0.00 0.00 0.00 56 1013.9
20200222053916 56 316 1.0 2.0 0.00 0.00 0.00 56 1013.9
20200222053811 56 314 1.0 2.0 0.00 0.00 0.00 56 1014.0
20200222053710 57 315 0.0 2.0 0.00 0.00 0.00 56 1014.0
20200222053616 57 315 0.0 1.0 0.00 0.00 0.00 56 1014.0
20200222053604 57 314 0.0 1.0 0.00 0.00 0.00 56 1014.1
20200222053503 57 315 0.0 1.0 0.00 0.00 0.00 56 1014.2
20200222053359 57 314 0.0 1.0 0.00 0.00 0.00 56 1014.2
20200222053258 57 314 0.0 0.0 0.00 0.00 0.00 56 1014.2
20200222053152 57 315 0.0 0.0 0.00 0.00 0.00 56 1014.2
20200222053116 57 314 0.0 0.0 0.00 0.00 0.00 56 1014.2
20200222053051 57 314 0.0 0.0 0.00 0.00 0.00 56 1014.2
20200222052947 57 315 0.0 0.0 0.00 0.00 0.00 55 1014.2
20200222052848 57 315 0.0 0.0 0.00 0.00 0.00 55 1014.2
20200222052740 57 314 0.0 0.0 0.00 0.00 0.00 55 1014.2
20200222052613 57 315 0.0 0.0 0.00 0.00 0.00 56 1014.2
20200222052534 57 315 0.0 0.0 0.00 0.00 0.00 56 1014.2
20200222052434 57 315 0.0 0.0 0.00 0.00 0.00 56 1014.2
20200222052328 57 315 0.0 0.0 0.00 0.00 0.00 56 1014.2
20200222052228 56 315 0.0 0.0 0.00 0.00 0.00 56 1014.2
20200222052123 56 314 0.0 0.0 0.00 0.00 0.00 56 1014.2
20200222052113 56 315 0.0 0.0 0.00 0.00 0.00 56 1014.2
20200222052023 56 315 0.0 0.0 0.00 0.00 0.00 56 1014.2
20200222051916 56 315 0.0 0.0 0.00 0.00 0.00 56 1014.2
20200222051816 56 315 0.0 0.0 0.00 0.00 0.00 56 1014.2
20200222051710 56 314 0.0 0.0 0.00 0.00 0.00 56 1014.2
20200222051616 56 314 0.0 0.0 0.00 0.00 0.00 56 1014.3
20200222051610 56 314 0.0 0.0 0.00 0.00 0.00 56 1014.2
20200222051504 56 314 0.0 0.0 0.00 0.00 0.00 56 1014.2
20200222051403 56 314 0.0 0.0 0.00 0.00 0.00 55 1014.2
20200222051258 56 314 0.0 0.0 0.00 0.00 0.00 55 1014.2
20200222051157 56 314 0.0 0.0 0.00 0.00 0.00 55 1014.2
20200222051113 56 315 0.0 0.0 0.00 0.00 0.00 55 1014.2
20200222051053 56 315 0.0 0.0 0.00 0.00 0.00 55 1014.2
20200222050953 56 315 0.0 0.0 0.00 0.00 0.00 55 1014.2
20200222050848 56 314 0.0 0.0 0.00 0.00 0.00 54 1014.2
20200222050746 57 314 0.0 0.0 0.00 0.00 0.00 54 1014.2
20200222050641 57 314 0.0 0.0 0.00 0.00 0.00 54 1014.1
20200222050612 57 315 0.0 0.0 0.00 0.00 0.00 54 1014.1
20200222050539 57 315 0.0 0.0 0.00 0.00 0.00 54 1014.2
20200222050434 57 315 0.0 0.0 0.00 0.00 0.00 54 1014.2
20200222050333 57 315 0.0 0.0 0.00 0.00 0.00 54 1014.1
20200222050228 57 315 0.0 1.0 0.00 0.00 0.00 54 1014.1
20200222050127 57 314 0.0 1.0 0.00 0.00 0.00 54 1014.1
20200222050110 57 315 0.0 1.0 0.00 0.00 0.00 54 1014.1
20200222050022 57 315 0.0 1.0 0.00 0.00 0.00 54 1014.1
20200222045921 57 314 0.0 1.0 0.00 0.00 0.00 54 1014.1
20200222045814 57 314 0.0 1.0 0.00 0.00 0.00 54 1014.0
20200222045713 57 314 0.0 1.0 0.00 0.00 0.00 54 1014.1
20200222045614 57 314 0.0 1.0 0.00 0.00 0.00 53 1014.0
20200222045609 57 315 0.0 1.0 0.00 0.00 0.00 53 1014.0
20200222045507 57 315 0.0 1.0 0.00 0.00 0.00 53 1014.1
20200222045402 57 314 0.0 1.0 0.00 0.00 0.00 53 1014.1
20200222045302 57 314 0.0 1.0 0.00 0.00 0.00 53 1014.0
20200222045157 58 315 0.0 1.0 0.00 0.00 0.00 53 1014.0
20200222045110 58 315 0.0 1.0 0.00 0.00 0.00 53 1014.0
20200222045055 58 314 0.0 1.0 0.00 0.00 0.00 53 1014.0
20200222044950 58 315 0.0 1.0 0.00 0.00 0.00 53 1014.1
20200222044850 58 315 0.0 1.0 0.00 0.00 0.00 53 1014.1
20200222044744 58 315 0.0 1.0 0.00 0.00 0.00 53 1014.1
20200222044644 58 314 0.0 1.0 0.00 0.00 0.00 53 1014.0
20200222044606 58 314 0.0 1.0 0.00 0.00 0.00 52 1014.0
20200222044539 58 315 0.0 1.0 0.00 0.00 0.00 52 1014.1
20200222044437 58 315 0.0 1.0 0.00 0.00 0.00 52 1014.0
20200222044332 58 314 0.0 1.0 0.00 0.00 0.00 52 1014.0
20200222044232 59 315 0.0 1.0 0.00 0.00 0.00 52 1014.0
20200222044126 59 315 0.0 1.0 0.00 0.00 0.00 52 1014.0
20200222044104 59 314 0.0 1.0 0.00 0.00 0.00 52 1014.0
20200222044024 59 315 0.0 1.0 0.00 0.00 0.00 51 1014.0
20200222043918 59 314 0.0 1.0 0.00 0.00 0.00 51 1014.0
20200222043818 59 314 0.0 1.0 0.00 0.00 0.00 51 1014.0
20200222043713 59 314 0.0 1.0 0.00 0.00 0.00 51 1014.0
20200222043611 59 315 0.0 1.0 0.00 0.00 0.00 51 1014.1
20200222043602 59 315 0.0 1.0 0.00 0.00 0.00 51 1014.0
20200222043506 59 315 0.0 1.0 0.00 0.00 0.00 51 1014.1
20200222043407 59 314 0.0 1.0 0.00 0.00 0.00 51 1014.1
20200222043301 59 315 0.0 1.0 0.00 0.00 0.00 51 1014.0
20200222043200 59 315 0.0 3.0 0.00 0.00 0.00 51 1014.0
20200222043054 59 314 0.0 3.0 0.00 0.00 0.00 51 1014.0
20200222042958 59 315 0.0 3.0 0.00 0.00 0.00 51 1013.9
20200222042848 59 315 1.0 3.0 0.00 0.00 0.00 50 1013.9
20200222042747 60 314 1.0 3.0 0.00 0.00 0.00 50 1013.9
20200222042643 60 314 1.0 4.0 0.00 0.00 0.00 50 1013.9
20200222042602 60 314 1.0 4.0 0.00 0.00 0.00 50 1013.9
20200222042542 60 315 1.0 4.0 0.00 0.00 0.00 50 1013.9
20200222042436 60 314 1.0 4.0 0.00 0.00 0.00 50 1013.9
20200222042335 60 315 1.0 4.0 0.00 0.00 0.00 49 1013.9
20200222042230 60 314 1.0 4.0 0.00 0.00 0.00 49 1013.9
20200222042129 60 303 1.0 4.0 0.00 0.00 0.00 49 1013.9
20200222042102 60 314 2.0 4.0 0.00 0.00 0.00 49 1013.9
20200222042029 60 314 2.0 4.0 0.00 0.00 0.00 49 1013.9
20200222041926 60 314 2.0 4.0 0.00 0.00 0.00 48 1014.0
20200222041826 60 314 2.0 4.0 0.00 0.00 0.00 49 1013.9
20200222041724 60 310 1.0 3.0 0.00 0.00 0.00 49 1014.0
20200222041624 60 307 1.0 3.0 0.00 0.00 0.00 49 1014.0
20200222041602 60 305 1.0 3.0 0.00 0.00 0.00 49 1014.0
20200222041522 60 305 1.0 3.0 0.00 0.00 0.00 49 1014.0
20200222041422 60 305 1.0 3.0 0.00 0.00 0.00 49 1014.0
20200222041323 60 305 1.0 3.0 0.00 0.00 0.00 49 1014.0
20200222041222 60 305 1.0 3.0 0.00 0.00 0.00 49 1014.0
20200222041116 60 304 1.0 3.0 0.00 0.00 0.00 49 1014.0
20200222041102 60 303 1.0 3.0 0.00 0.00 0.00 50 1014.0
20200222041015 60 303 1.0 3.0 0.00 0.00 0.00 50 1014.0
20200222040910 59 304 1.0 2.0 0.00 0.00 0.00 50 1014.1
20200222040810 59 300 1.0 2.0 0.00 0.00 0.00 51 1014.1
20200222040705 59 300 1.0 2.0 0.00 0.00 0.00 51 1014.1
20200222040605 59 300 1.0 2.0 0.00 0.00 0.00 51 1014.1
20200222040458 59 300 0.0 1.0 0.00 0.00 0.00 51 1014.2
20200222040357 59 300 0.0 1.0 0.00 0.00 0.00 52 1014.2
20200222040252 59 300 0.0 1.0 0.00 0.00 0.00 52 1014.2
20200222040149 59 300 0.0 1.0 0.00 0.00 0.00 52 1014.2
20200222040056 59 299 0.0 1.0 0.00 0.00 0.00 52 1014.2
20200222040047 59 300 0.0 1.0 0.00 0.00 0.00 52 1014.2
20200222035945 59 300 0.0 1.0 0.00 0.00 0.00 52 1014.2
20200222035838 59 300 0.0 1.0 0.00 0.00 0.00 51 1014.2
20200222035738 59 300 0.0 0.0 0.00 0.00 0.00 51 1014.2
20200222035632 59 300 0.0 0.0 0.00 0.00 0.00 50 1014.3
20200222035532 60 300 0.0 0.0 0.00 0.00 0.00 50 1014.2
20200222035426 60 300 0.0 0.0 0.00 0.00 0.00 49 1014.3
20200222035326 60 300 0.0 0.0 0.00 0.00 0.00 49 1014.3
20200222035220 60 300 0.0 0.0 0.00 0.00 0.00 48 1014.3
20200222035120 60 300 0.0 0.0 0.00 0.00 0.00 49 1014.2
20200222035054 60 300 0.0 0.0 0.00 0.00 0.00 49 1014.2
20200222035014 60 300 0.0 1.0 0.00 0.00 0.00 48 1014.2
20200222034914 60 300 0.0 1.0 0.00 0.00 0.00 48 1014.3
20200222034808 60 300 0.0 1.0 0.00 0.00 0.00 48 1014.3
20200222034706 61 300 0.0 1.0 0.00 0.00 0.00 48 1014.4
20200222034553 61 300 0.0 1.0 0.00 0.00 0.00 49 1014.3
20200222034500 61 300 0.0 1.0 0.00 0.00 0.00 48 1014.4
20200222034356 61 300 0.0 1.0 0.00 0.00 0.00 48 1014.3
20200222034257 61 300 0.0 1.0 0.00 0.00 0.00 48 1014.3
20200222034157 61 300 1.0 1.0 0.00 0.00 0.00 47 1014.3
20200222034056 62 300 1.0 1.0 0.00 0.00 0.00 47 1014.3
20200222033952 62 300 1.0 1.0 0.00 0.00 0.00 47 1014.3
20200222033852 62 300 1.0 2.0 0.00 0.00 0.00 47 1014.3
20200222033753 62 300 0.0 2.0 0.00 0.00 0.00 46 1014.3
20200222033652 62 300 1.0 2.0 0.00 0.00 0.00 46 1014.3
20200222033553 62 300 1.0 2.0 0.00 0.00 0.00 46 1014.3
20200222033446 62 300 1.0 2.0 0.00 0.00 0.00 46 1014.2
20200222033348 62 300 1.0 2.0 0.00 0.00 0.00 46 1014.2
20200222033240 62 300 1.0 2.0 0.00 0.00 0.00 46 1014.2
20200222033140 62 301 1.0 2.0 0.00 0.00 0.00 46 1014.2
20200222033034 62 300 1.0 2.0 0.00 0.00 0.00 46 1014.2
20200222032933 62 301 1.0 2.0 0.00 0.00 0.00 46 1014.2
20200222032828 62 300 1.0 2.0 0.00 0.00 0.00 46 1014.2
20200222032728 62 301 1.0 2.0 0.00 0.00 0.00 46 1014.2
20200222032623 62 300 1.0 2.0 0.00 0.00 0.00 45 1014.2
20200222032521 63 300 1.0 2.0 0.00 0.00 0.00 45 1014.2
20200222032417 63 301 1.0 2.0 0.00 0.00 0.00 45 1014.2
20200222032316 63 301 1.0 2.0 0.00 0.00 0.00 45 1014.3
20200222032210 63 301 1.0 2.0 0.00 0.00 0.00 45 1014.3
20200222032110 62 301 1.0 2.0 0.00 0.00 0.00 45 1014.2
20200222032043 62 300 1.0 2.0 0.00 0.00 0.00 45 1014.2
20200222032005 62 300 1.0 2.0 0.00 0.00 0.00 45 1014.2
20200222031904 62 301 0.0 1.0 0.00 0.00 0.00 45 1014.2
20200222031759 62 301 0.0 1.0 0.00 0.00 0.00 46 1014.2
20200222031658 62 301 0.0 1.0 0.00 0.00 0.00 45 1014.2
20200222031553 62 301 0.0 1.0 0.00 0.00 0.00 46 1014.3
20200222031542 62 300 0.0 1.0 0.00 0.00 0.00 46 1014.3
20200222031451 62 301 0.0 1.0 0.00 0.00 0.00 46 1014.3
20200222031347 62 300 0.0 1.0 0.00 0.00 0.00 46 1014.2
20200222031246 62 300 0.0 1.0 0.00 0.00 0.00 46 1014.3
20200222031140 62 301 0.0 1.0 0.00 0.00 0.00 46 1014.3
20200222031040 63 300 0.0 1.0 0.00 0.00 0.00 46 1014.3
20200222030934 63 301 0.0 1.0 0.00 0.00 0.00 46 1014.3
20200222030832 63 300 0.0 1.0 0.00 0.00 0.00 46 1014.3
20200222030726 63 301 0.0 1.0 0.00 0.00 0.00 45 1014.3
20200222030626 63 300 0.0 1.0 0.00 0.00 0.00 45 1014.3
20200222030521 63 300 0.0 0.0 0.00 0.00 0.00 44 1014.3
20200222030420 63 301 0.0 0.0 0.00 0.00 0.00 44 1014.3
20200222030314 63 300 0.0 0.0 0.00 0.00 0.00 44 1014.3
20200222030214 63 301 0.0 0.0 0.00 0.00 0.00 43 1014.2
20200222030109 64 301 0.0 0.0 0.00 0.00 0.00 43 1014.2
20200222030039 64 301 0.0 0.0 0.00 0.00 0.00 43 1014.3
20200222030007 64 300 0.0 0.0 0.00 0.00 0.00 43 1014.2
20200222025900 64 301 0.0 0.0 0.00 0.00 0.00 43 1014.3
20200222025800 64 301 0.0 0.0 0.00 0.00 0.00 42 1014.3
20200222025655 64 300 0.0 0.0 0.00 0.00 0.00 42 1014.3
20200222025538 64 301 0.0 0.0 0.00 0.00 0.00 42 1014.2
20200222025448 65 301 0.0 0.0 0.00 0.00 0.00 42 1014.2
20200222025348 65 301 0.0 0.0 0.00 0.00 0.00 41 1014.3
20200222025242 65 301 0.0 0.0 0.00 0.00 0.00 41 1014.2
20200222025141 65 301 0.0 0.0 0.00 0.00 0.00 41 1014.3
20200222025042 65 300 0.0 1.0 0.00 0.00 0.00 41 1014.3
20200222025036 65 301 0.0 1.0 0.00 0.00 0.00 41 1014.3
20200222024938 65 300 0.0 1.0 0.00 0.00 0.00 40 1014.3
20200222024831 65 300 0.0 1.0 0.00 0.00 0.00 40 1014.3
20200222024730 66 300 0.0 1.0 0.00 0.00 0.00 40 1014.3
20200222024624 66 300 0.0 1.0 0.00 0.00 0.00 40 1014.3
20200222024523 66 301 0.0 1.0 0.00 0.00 0.00 40 1014.2
20200222024418 66 300 0.0 1.0 0.00 0.00 0.00 40 1014.3
20200222024317 66 301 0.0 1.0 0.00 0.00 0.00 40 1014.3
20200222024211 66 300 0.0 1.0 0.00 0.00 0.00 40 1014.3
20200222024110 66 301 0.0 1.0 0.00 0.00 0.00 40 1014.2
20200222024038 66 300 0.0 1.0 0.00 0.00 0.00 40 1014.2
20200222024004 66 301 0.0 1.0 0.00 0.00 0.00 40 1014.2
20200222023903 66 300 0.0 1.0 0.00 0.00 0.00 40 1014.2
20200222023759 66 300 0.0 1.0 0.00 0.00 0.00 40 1014.2
20200222023657 66 301 0.0 1.0 0.00 0.00 0.00 40 1014.2
20200222023538 66 300 0.0 1.0 0.00 0.00 0.00 40 1014.2
20200222023451 66 301 0.0 1.0 0.00 0.00 0.00 40 1014.2
20200222023347 66 300 0.0 1.0 0.00 0.00 0.00 40 1014.2
20200222023247 66 300 0.0 1.0 0.00 0.00 0.00 40 1014.2
20200222023140 66 300 0.0 1.0 0.00 0.00 0.00 39 1014.2
20200222023041 66 300 0.0 1.0 0.00 0.00 0.00 39 1014.2
20200222022935 66 300 0.0 1.0 0.00 0.00 0.00 39 1014.1
20200222022834 66 300 0.0 1.0 0.00 0.00 0.00 39 1014.2
20200222022729 66 300 0.0 1.0 0.00 0.00 0.00 39 1014.2
20200222022627 66 300 0.0 1.0 0.00 0.00 0.00 39 1014.1
20200222022532 67 301 0.0 1.0 0.00 0.00 0.00 39 1014.2
20200222022523 67 300 0.0 1.0 0.00 0.00 0.00 39 1014.2
20200222022422 67 300 0.0 1.0 0.00 0.00 0.00 39 1014.1
20200222022316 67 300 0.0 1.0 0.00 0.00 0.00 39 1014.1
20200222022215 67 300 1.0 2.0 0.00 0.00 0.00 39 1014.1
20200222022110 67 300 1.0 2.0 0.00 0.00 0.00 38 1014.1
20200222022032 67 301 1.0 2.0 0.00 0.00 0.00 38 1014.1
20200222022010 67 300 1.0 2.0 0.00 0.00 0.00 38 1014.1
20200222021904 67 300 1.0 2.0 0.00 0.00 0.00 38 1014.1
20200222021803 67 300 1.0 2.0 0.00 0.00 0.00 38 1014.1
20200222021658 67 300 1.0 2.0 0.00 0.00 0.00 38 1014.0
20200222021533 67 300 1.0 2.0 0.00 0.00 0.00 38 1014.1
20200222021451 67 300 1.0 2.0 0.00 0.00 0.00 38 1014.0
20200222021351 67 301 1.0 3.0 0.00 0.00 0.00 38 1014.0
20200222021245 67 300 1.0 3.0 0.00 0.00 0.00 38 1014.0
20200222021143 67 300 1.0 3.0 0.00 0.00 0.00 38 1014.0
20200222021032 67 300 1.0 3.0 0.00 0.00 0.00 38 1014.0
20200222020938 67 300 1.0 3.0 0.00 0.00 0.00 38 1014.0
20200222020832 67 300 1.0 3.0 0.00 0.00 0.00 38 1014.0
20200222020731 67 300 1.0 3.0 0.00 0.00 0.00 38 1014.0
20200222020626 67 300 1.0 3.0 0.00 0.00 0.00 38 1014.0
20200222020525 67 300 1.0 3.0 0.00 0.00 0.00 38 1014.0
20200222020420 67 300 1.0 3.0 0.00 0.00 0.00 38 1014.0
20200222020319 67 293 1.0 3.0 0.00 0.00 0.00 38 1014.0
20200222020214 67 292 1.0 3.0 0.00 0.00 0.00 38 1014.0
20200222020112 67 302 1.0 3.0 0.00 0.00 0.00 38 1014.0
20200222020006 67 304 1.0 3.0 0.00 0.00 0.00 38 1014.0
20200222015906 67 304 1.0 3.0 0.00 0.00 0.00 38 1014.0
20200222015800 67 304 1.0 3.0 0.00 0.00 0.00 37 1014.0
20200222015659 67 305 1.0 3.0 0.00 0.00 0.00 38 1014.0
20200222015555 67 302 1.0 3.0 0.00 0.00 0.00 38 1014.0
20200222015524 67 302 1.0 3.0 0.00 0.00 0.00 38 1014.0
20200222015454 67 301 1.0 3.0 0.00 0.00 0.00 38 1013.9
20200222015349 67 300 1.0 3.0 0.00 0.00 0.00 38 1013.9
20200222015248 67 314 1.0 2.0 0.00 0.00 0.00 38 1013.9
20200222015143 67 314 1.0 2.0 0.00 0.00 0.00 38 1013.9
20200222015024 67 321 1.0 2.0 0.00 0.00 0.00 38 1013.9
20200222014936 67 321 1.0 2.0 0.00 0.00 0.00 38 1013.9
20200222014836 67 321 1.0 2.0 0.00 0.00 0.00 38 1013.9
20200222014732 67 320 1.0 2.0 0.00 0.00 0.00 38 1013.9
20200222014630 67 319 1.0 2.0 0.00 0.00 0.00 38 1013.9
20200222014524 68 319 1.0 2.0 0.00 0.00 0.00 38 1013.9
20200222014423 68 319 1.0 2.0 0.00 0.00 0.00 38 1013.9
20200222014319 68 319 1.0 2.0 0.00 0.00 0.00 38 1013.9
20200222014217 68 316 1.0 2.0 0.00 0.00 0.00 38 1013.9
20200222014112 68 316 1.0 2.0 0.00 0.00 0.00 38 1013.9
20200222014012 68 316 1.0 2.0 0.00 0.00 0.00 38 1013.9
20200222013906 68 316 1.0 2.0 0.00 0.00 0.00 38 1013.8
20200222013805 68 316 1.0 2.0 0.00 0.00 0.00 38 1013.9
20200222013700 68 315 1.0 2.0 0.00 0.00 0.00 38 1013.9
20200222013559 68 316 1.0 2.0 0.00 0.00 0.00 38 1013.9
20200222013522 68 314 1.0 2.0 0.00 0.00 0.00 38 1013.9
20200222013454 68 330 1.0 2.0 0.00 0.00 0.00 38 1013.9
20200222013353 68 330 1.0 2.0 0.00 0.00 0.00 37 1013.8
20200222013246 69 330 1.0 2.0 0.00 0.00 0.00 37 1013.9
20200222013146 69 330 1.0 2.0 0.00 0.00 0.00 37 1013.8
20200222013019 69 330 1.0 2.0 0.00 0.00 0.00 37 1013.8
20200222012940 69 330 1.0 2.0 0.00 0.00 0.00 37 1013.8
20200222012830 69 330 1.0 3.0 0.00 0.00 0.00 37 1013.8
20200222012730 69 328 1.0 3.0 0.00 0.00 0.00 36 1013.8
20200222012625 69 329 1.0 3.0 0.00 0.00 0.00 36 1013.8
20200222012514 69 350 1.0 3.0 0.00 0.00 0.00 36 1013.8
20200222012418 69 348 2.0 4.0 0.00 0.00 0.00 36 1013.8
20200222012318 69 325 2.0 4.0 0.00 0.00 0.00 35 1013.8
20200222012213 69 325 2.0 4.0 0.00 0.00 0.00 36 1013.8
20200222012112 70 325 2.0 4.0 0.00 0.00 0.00 35 1013.7
20200222012006 70 321 2.0 4.0 0.00 0.00 0.00 35 1013.8
20200222011905 70 311 2.0 4.0 0.00 0.00 0.00 35 1013.8
20200222011800 70 345 2.0 4.0 0.00 0.00 0.00 35 1013.8
20200222011700 70 312 2.0 5.0 0.00 0.00 0.00 35 1013.7
20200222011559 70 323 2.0 5.0 0.00 0.00 0.00 34 1013.7
20200222011515 70 328 2.0 5.0 0.00 0.00 0.00 34 1013.7
20200222011457 70 316 2.0 5.0 0.00 0.00 0.00 34 1013.7
20200222011356 70 309 2.0 5.0 0.00 0.00 0.00 35 1013.8
20200222011254 70 316 2.0 5.0 0.00 0.00 0.00 35 1013.8
20200222011153 70 300 2.0 5.0 0.00 0.00 0.00 34 1013.8
20200222011053 70 318 2.0 5.0 0.00 0.00 0.00 34 1013.7
20200222011011 70 334 2.0 5.0 0.00 0.00 0.00 34 1013.7
20200222010953 70 333 2.0 5.0 0.00 0.00 0.00 34 1013.8
20200222010853 70 5 2.0 5.0 0.00 0.00 0.00 34 1013.8
20200222010753 71 333 2.0 5.0 0.00 0.00 0.00 34 1013.8
20200222010646 71 315 2.0 5.0 0.00 0.00 0.00 34 1013.8
20200222010547 71 304 2.0 5.0 0.00 0.00 0.00 34 1013.8
20200222010512 71 303 2.0 5.0 0.00 0.00 0.00 34 1013.8
20200222010442 71 302 2.0 5.0 0.00 0.00 0.00 34 1013.8
20200222010341 71 344 3.0 6.0 0.00 0.00 0.00 34 1013.8
20200222010241 71 333 3.0 6.0 0.00 0.00 0.00 34 1013.8
20200222010141 71 301 3.0 6.0 0.00 0.00 0.00 34 1013.8
20200222010039 71 326 3.0 6.0 0.00 0.00 0.00 33 1013.8
20200222010012 71 310 3.0 6.0 0.00 0.00 0.00 33 1013.8
20200222005938 71 300 3.0 6.0 0.00 0.00 0.00 33 1013.8
20200222005837 71 347 3.0 6.0 0.00 0.00 0.00 33 1013.8
20200222005732 71 333 3.0 6.0 0.00 0.00 0.00 33 1013.8
20200222005631 71 321 3.0 6.0 0.00 0.00 0.00 33 1013.8
20200222005526 71 321 2.0 6.0 0.00 0.00 0.00 33 1013.8
20200222005512 71 335 2.0 6.0 0.00 0.00 0.00 33 1013.8
20200222005425 71 13 2.0 5.0 0.00 0.00 0.00 33 1013.8
20200222005320 71 311 2.0 5.0 0.00 0.00 0.00 34 1013.8
20200222005220 71 26 2.0 5.0 0.00 0.00 0.00 34 1013.8
20200222005115 71 307 2.0 4.0 0.00 0.00 0.00 34 1013.8
20200222005015 71 322 2.0 4.0 0.00 0.00 0.00 34 1013.8
20200222004910 71 350 2.0 4.0 0.00 0.00 0.00 34 1013.8
20200222004807 71 343 2.0 4.0 0.00 0.00 0.00 34 1013.8
20200222004702 71 317 2.0 4.0 0.00 0.00 0.00 34 1013.8
20200222004602 71 340 2.0 4.0 0.00 0.00 0.00 34 1013.8
20200222004509 71 347 2.0 4.0 0.00 0.00 0.00 34 1013.8
20200222004456 71 346 2.0 4.0 0.00 0.00 0.00 34 1013.8
20200222004356 71 353 2.0 5.0 0.00 0.00 0.00 33 1013.8
20200222004250 71 309 2.0 5.0 0.00 0.00 0.00 33 1013.8
20200222004150 71 343 3.0 5.0 0.00 0.00 0.00 32 1013.8
20200222004040 71 330 3.0 5.0 0.00 0.00 0.00 32 1013.8
20200222004008 71 355 3.0 5.0 0.00 0.00 0.00 32 1013.8
20200222003940 71 342 3.0 5.0 0.00 0.00 0.00 32 1013.8
20200222003834 71 342 3.0 5.0 0.00 0.00 0.00 32 1013.8
20200222003733 71 315 3.0 6.0 0.00 0.00 0.00 32 1013.8
20200222003627 71 317 3.0 6.0 0.00 0.00 0.00 32 1013.9
20200222003526 71 321 3.0 6.0 0.00 0.00 0.00 31 1013.8
20200222003508 71 304 3.0 6.0 0.00 0.00 0.00 31 1013.8
20200222003421 71 315 3.0 6.0 0.00 0.00 0.00 32 1013.8
20200222003320 71 309 3.0 6.0 0.00 0.00 0.00 32 1013.9
20200222003215 72 345 3.0 6.0 0.00 0.00 0.00 32 1013.8
20200222003115 72 307 3.0 6.0 0.00 0.00 0.00 31 1013.9
20200222003012 72 294 3.0 6.0 0.00 0.00 0.00 31 1013.9
20200222002911 72 318 2.0 6.0 0.00 0.00 0.00 31 1013.9
20200222002810 72 328 2.0 6.0 0.00 0.00 0.00 31 1013.9
20200222002709 72 338 3.0 6.0 0.00 0.00 0.00 31 1013.9
20200222002609 72 322 3.0 6.0 0.00 0.00 0.00 31 1014.0
20200222002513 72 293 3.0 6.0 0.00 0.00 0.00 31 1013.9
20200222002507 72 302 3.0 6.0 0.00 0.00 0.00 31 1014.0
20200222002406 72 293 3.0 6.0 0.00 0.00 0.00 31 1013.9
20200222002307 72 307 3.0 6.0 0.00 0.00 0.00 30 1014.0
20200222002205 72 342 3.0 6.0 0.00 0.00 0.00 30 1013.9
20200222002100 72 340 3.0 6.0 0.00 0.00 0.00 30 1013.9
20200222002008 72 300 3.0 6.0 0.00 0.00 0.00 30 1013.9
20200222001959 72 325 3.0 6.0 0.00 0.00 0.00 30 1013.9
20200222001855 72 340 3.0 6.0 0.00 0.00 0.00 30 1013.9
20200222001753 72 302 3.0 6.0 0.00 0.00 0.00 30 1013.9
20200222001648 72 26 3.0 6.0 0.00 0.00 0.00 30 1013.9
20200222001547 72 335 3.0 7.0 0.00 0.00 0.00 30 1013.9
20200222001508 72 338 3.0 7.0 0.00 0.00 0.00 31 1013.9
20200222001442 72 9 3.0 7.0 0.00 0.00 0.00 31 1014.0
20200222001343 72 332 3.0 7.0 0.00 0.00 0.00 30 1014.0
20200222001237 72 343 3.0 7.0 0.00 0.00 0.00 31 1014.0
20200222001135 72 317 3.0 7.0 0.00 0.00 0.00 33 1014.0
20200222001029 72 343 3.0 7.0 0.00 0.00 0.00 32 1014.0
20200222001007 72 311 3.0 7.0 0.00 0.00 0.00 32 1014.1
20200222000930 72 343 3.0 7.0 0.00 0.00 0.00 32 1014.1
20200222000823 72 317 3.0 7.0 0.00 0.00 0.00 32 1014.1
20200222000721 72 316 3.0 7.0 0.00 0.00 0.00 31 1014.1
20200222000617 72 353 2.0 7.0 0.00 0.00 0.00 32 1014.1
20200222000521 72 335 2.0 7.0 0.00 0.00 0.00 32 1014.1
20200222000509 72 335 2.0 7.0 0.00 0.00 0.00 33 1014.1
20200222000414 72 344 2.0 7.0 0.00 0.00 0.00 33 1014.1
20200222000310 72 328 2.0 7.0 0.00 0.00 0.00 33 1014.2
20200222000204 72 50 2.0 7.0 0.00 0.00 0.00 32 1014.2
20200222000105 72 297 2.0 7.0 0.00 0.00 0.00 33 1014.2
20200222000005 72 340 2.0 7.0 0.00 0.00 0.00 32 1014.2
20200221235959 72 326 2.0 7.0 0.00 0.00 0.00 32 1014.2
20200221235857 72 0 2.0 7.0 0.00 0.00 0.00 32 1014.2
20200221235752 72 0 2.0 7.0 0.00 0.00 0.00 32 1014.2
20200221235650 72 311 2.0 7.0 0.00 0.00 0.00 32 1014.2
20200221235545 72 296 2.0 7.0 0.00 0.00 0.00 32 1014.2
20200221235506 72 23 2.0 7.0 0.00 0.00 0.00 32 1014.2
20200221235443 72 349 3.0 7.0 0.00 0.00 0.00 31 1014.2
20200221235340 72 354 3.0 7.0 0.00 0.00 0.00 31 1014.2
20200221235238 72 296 3.0 7.0 0.00 0.00 0.00 31 1014.2
20200221235139 72 284 3.0 9.0 0.00 0.00 0.00 31 1014.2
20200221235039 72 297 3.0 9.0 0.00 0.00 0.00 31 1014.2
20200221235007 72 248 3.0 9.0 0.00 0.00 0.00 30 1014.2
20200221234938 72 309 3.0 9.0 0.00 0.00 0.00 31 1014.3
20200221234838 72 269 3.0 9.0 0.00 0.00 0.00 31 1014.3
20200221234738 72 334 3.0 9.0 0.00 0.00 0.00 30 1014.3
20200221234633 72 321 3.0 9.0 0.00 0.00 0.00 30 1014.3
20200221234531 72 319 3.0 9.0 0.00 0.00 0.00 30 1014.4
20200221234506 72 305 3.0 9.0 0.00 0.00 0.00 30 1014.4
20200221234426 72 314 3.0 9.0 0.00 0.00 0.00 30 1014.3
20200221234326 72 1 4.0 9.0 0.00 0.00 0.00 30 1014.4
20200221234220 73 357 4.0 9.0 0.00 0.00 0.00 30 1014.4
20200221234119 73 338 4.0 10.0 0.00 0.00 0.00 29 1014.3
20200221234015 73 5 4.0 10.0 0.00 0.00 0.00 29 1014.3
20200221234006 73 338 4.0 10.0 0.00 0.00 0.00 29 1014.3
20200221233913 73 22 4.0 10.0 0.00 0.00 0.00 29 1014.4
20200221233808 73 294 4.0 10.0 0.00 0.00 0.00 30 1014.4
20200221233707 73 315 4.0 10.0 0.00 0.00 0.00 30 1014.4
20200221233602 73 332 4.0 10.0 0.00 0.00 0.00 29 1014.4
20200221233508 73 312 4.0 10.0 0.00 0.00 0.00 29 1014.4
20200221233502 73 37 4.0 10.0 0.00 0.00 0.00 29 1014.5
20200221233356 73 330 4.0 10.0 0.00 0.00 0.00 30 1014.5
20200221233256 73 340 4.0 10.0 0.00 0.00 0.00 30 1014.5
20200221233156 73 291 4.0 10.0 0.00 0.00 0.00 30 1014.5
20200221233056 73 302 4.0 8.0 0.00 0.00 0.00 30 1014.5
20200221233005 73 314 4.0 8.0 0.00 0.00 0.00 30 1014.5
20200221232956 73 316 4.0 8.0 0.00 0.00 0.00 30 1014.5
20200221232856 73 314 4.0 7.0 0.00 0.00 0.00 30 1014.5
20200221232756 73 8 3.0 7.0 0.00 0.00 0.00 30 1014.5
20200221232650 73 342 3.0 7.0 0.00 0.00 0.00 30 1014.5
20200221232550 73 290 3.0 7.0 0.00 0.00 0.00 31 1014.5
20200221232505 73 326 3.0 7.0 0.00 0.00 0.00 30 1014.5
20200221232445 73 340 3.0 7.0 0.00 0.00 0.00 30 1014.5
20200221232344 73 314 4.0 7.0 0.00 0.00 0.00 31 1014.5
20200221232238 73 298 4.0 9.0 0.00 0.00 0.00 31 1014.5
20200221232137 73 335 3.0 9.0 0.00 0.00 0.00 31 1014.6
20200221232032 73 297 3.0 9.0 0.00 0.00 0.00 30 1014.6
20200221232002 73 320 3.0 9.0 0.00 0.00 0.00 30 1014.5
20200221231932 73 301 3.0 9.0 0.00 0.00 0.00 30 1014.5
20200221231826 73 298 3.0 9.0 0.00 0.00 0.00 30 1014.5
20200221231726 73 30 3.0 9.0 0.00 0.00 0.00 30 1014.5
20200221231620 73 292 3.0 9.0 0.00 0.00 0.00 30 1014.5
20200221231520 73 346 3.0 9.0 0.00 0.00 0.00 30 1014.5
20200221231502 73 330 3.0 9.0 0.00 0.00 0.00 30 1014.5
20200221231414 73 307 3.0 9.0 0.00 0.00 0.00 30 1014.5